Wetterdaten: Dienstag, 18.04.2023
Datum Zeit Temp. Aussen Temp. o. S. Temp +5cm Feuchte Auss Luftdruck Regen Sonnenschein Regendauer Solar Windben Empfang
18.04.2023 00:00 10,8 C 10,0 C 6,1 C 73 % 1025,4 hPa 0,0 l/m 0 min 0 min 0 W/m 9,7 km/h (2 Bft) 100,00 %
18.04.2023 00:02 10,8 C 10,0 C 6,1 C 73 % 1025,4 hPa 0,0 l/m 0 min 0 min 0 W/m 9,7 km/h (2 Bft) 94,44 %
18.04.2023 00:04 10,8 C 10,0 C 6,1 C 73 % 1025,3 hPa 0,0 l/m 0 min 0 min 0 W/m 19,3 km/h (3 Bft) 97,92 %
18.04.2023 00:07 10,7 C 10,0 C 6,1 C 73 % 1025,4 hPa 0,0 l/m 0 min 0 min 0 W/m 6,4 km/h (2 Bft) 98,61 %
18.04.2023 00:08 10,7 C 10,0 C 6,1 C 73 % 1025,4 hPa 0,0 l/m 0 min 0 min 0 W/m 0,0 km/h (0 Bft) 95,65 %
18.04.2023 00:12 10,7 C 10,0 C 6,1 C 73 % 1025,4 hPa 0,0 l/m 0 min 0 min 0 W/m 6,4 km/h (2 Bft) 94,12 %
18.04.2023 00:18 10,6 C 9,4 C 6,1 C 73 % 1025,4 hPa 0,0 l/m 0 min 0 min 0 W/m 9,7 km/h (2 Bft) 97,56 %
18.04.2023 00:20 10,6 C 9,4 C 6,1 C 73 % 1025,4 hPa 0,0 l/m 0 min 0 min 0 W/m 9,7 km/h (2 Bft) 97,87 %
18.04.2023 00:22 10,6 C 9,4 C 6,1 C 73 % 1025,4 hPa 0,0 l/m 0 min 0 min 0 W/m 9,7 km/h (2 Bft) 100,00 %
18.04.2023 00:24 10,6 C 9,4 C 6,1 C 73 % 1025,3 hPa 0,0 l/m 0 min 0 min 0 W/m 9,7 km/h (2 Bft) 100,00 %
18.04.2023 00:26 10,6 C 9,4 C 6,1 C 72 % 1025,3 hPa 0,0 l/m 0 min 0 min 0 W/m 12,9 km/h (3 Bft) 97,87 %
18.04.2023 00:28 10,6 C 10,0 C 6,1 C 72 % 1025,4 hPa 0,0 l/m 0 min 0 min 0 W/m 9,7 km/h (2 Bft) 100,00 %
18.04.2023 00:30 10,6 C 10,0 C 6,1 C 72 % 1025,4 hPa 0,0 l/m 0 min 0 min 0 W/m 12,9 km/h (3 Bft) 100,00 %
18.04.2023 00:32 10,5 C 9,4 C 6,1 C 72 % 1025,4 hPa 0,0 l/m 0 min 0 min 0 W/m 9,7 km/h (2 Bft) 100,00 %
18.04.2023 00:34 10,5 C 9,4 C 6,1 C 71 % 1025,4 hPa 0,0 l/m 0 min 0 min 0 W/m 16,1 km/h (3 Bft) 100,00 %
18.04.2023 00:36 10,5 C 10,0 C 6,1 C 71 % 1025,4 hPa 0,0 l/m 0 min 0 min 0 W/m 19,3 km/h (3 Bft) 100,00 %
18.04.2023 00:38 10,5 C 9,4 C 6,1 C 71 % 1025,4 hPa 0,0 l/m 0 min 0 min 0 W/m 9,7 km/h (2 Bft) 100,00 %
18.04.2023 00:40 10,5 C 9,4 C 6,1 C 71 % 1025,4 hPa 0,0 l/m 0 min 0 min 0 W/m 9,7 km/h (2 Bft) 100,00 %
18.04.2023 00:42 10,4 C 9,4 C 6,1 C 70 % 1025,4 hPa 0,0 l/m 0 min 0 min 0 W/m 9,7 km/h (2 Bft) 100,00 %
18.04.2023 00:44 10,4 C 9,4 C 6,1 C 70 % 1025,4 hPa 0,0 l/m 0 min 0 min 0 W/m 9,7 km/h (2 Bft) 100,00 %
18.04.2023 00:46 10,4 C 9,4 C 6,1 C 70 % 1025,5 hPa 0,0 l/m 0 min 0 min 0 W/m 3,2 km/h (1 Bft) 100,00 %
18.04.2023 00:48 10,4 C 9,4 C 5,6 C 70 % 1025,5 hPa 0,0 l/m 0 min 0 min 0 W/m 9,7 km/h (2 Bft) 100,00 %
18.04.2023 00:50 10,4 C 9,4 C 5,6 C 71 % 1025,5 hPa 0,0 l/m 0 min 0 min 0 W/m 6,4 km/h (2 Bft) 97,87 %
18.04.2023 00:52 10,3 C 9,4 C 5,6 C 71 % 1025,5 hPa 0,0 l/m 0 min 0 min 0 W/m 6,4 km/h (2 Bft) 97,87 %
18.04.2023 00:54 10,3 C 8,9 C 5,6 C 71 % 1025,5 hPa 0,0 l/m 0 min 0 min 0 W/m 9,7 km/h (2 Bft) 97,96 %
18.04.2023 00:56 10,3 C 8,9 C 5,6 C 71 % 1025,5 hPa 0,0 l/m 0 min 0 min 0 W/m 16,1 km/h (3 Bft) 93,62 %
18.04.2023 00:58 10,2 C 9,4 C 5,6 C 70 % 1025,5 hPa 0,0 l/m 0 min 0 min 0 W/m 12,9 km/h (3 Bft) 97,92 %
18.04.2023 01:00 10,2 C 9,4 C 5,6 C 70 % 1025,5 hPa 0,0 l/m 0 min 0 min 0 W/m 19,3 km/h (3 Bft) 97,87 %
18.04.2023 01:02 10,2 C 9,4 C 5,6 C 70 % 1025,5 hPa 0,0 l/m 0 min 0 min 0 W/m 9,7 km/h (2 Bft) 95,74 %
18.04.2023 01:04 10,2 C 9,4 C 5,6 C 70 % 1025,5 hPa 0,0 l/m 0 min 0 min 0 W/m 6,4 km/h (2 Bft) 95,74 %
18.04.2023 01:06 10,1 C 9,4 C 5,6 C 70 % 1025,5 hPa 0,0 l/m 0 min 0 min 0 W/m 16,1 km/h (3 Bft) 94,12 %
18.04.2023 01:08 10,1 C 9,4 C 5,6 C 70 % 1025,5 hPa 0,0 l/m 0 min 0 min 0 W/m 9,7 km/h (2 Bft) 95,74 %
18.04.2023 01:10 10,1 C 9,4 C 5,6 C 70 % 1025,4 hPa 0,0 l/m 0 min 0 min 0 W/m 16,1 km/h (3 Bft) 95,65 %
18.04.2023 01:12 10,1 C 9,4 C 5,6 C 69 % 1025,5 hPa 0,0 l/m 0 min 0 min 0 W/m 12,9 km/h (3 Bft) 95,83 %
18.04.2023 01:14 10,1 C 9,4 C 5,6 C 69 % 1025,5 hPa 0,0 l/m 0 min 0 min 0 W/m 16,1 km/h (3 Bft) 95,74 %
18.04.2023 01:16 10,0 C 8,9 C 5,6 C 69 % 1025,5 hPa 0,0 l/m 0 min 0 min 0 W/m 9,7 km/h (2 Bft) 95,74 %
18.04.2023 01:18 9,9 C 8,9 C 5,6 C 69 % 1025,5 hPa 0,0 l/m 0 min 0 min 0 W/m 9,7 km/h (2 Bft) 94,29 %
18.04.2023 01:20 9,9 C 8,9 C 5,6 C 69 % 1025,5 hPa 0,0 l/m 0 min 0 min 0 W/m 6,4 km/h (2 Bft) 95,74 %
18.04.2023 01:22 9,9 C 8,9 C 5,6 C 69 % 1025,5 hPa 0,0 l/m 0 min 0 min 0 W/m 9,7 km/h (2 Bft) 95,65 %
18.04.2023 01:24 9,8 C 8,9 C 5,0 C 69 % 1025,5 hPa 0,0 l/m 0 min 0 min 0 W/m 6,4 km/h (2 Bft) 95,74 %
18.04.2023 01:26 9,8 C 8,9 C 5,0 C 69 % 1025,5 hPa 0,0 l/m 0 min 0 min 0 W/m 6,4 km/h (2 Bft) 92,00 %
18.04.2023 01:28 9,8 C 8,3 C 5,0 C 69 % 1025,5 hPa 0,0 l/m 0 min 0 min 0 W/m 6,4 km/h (2 Bft) 96,30 %
18.04.2023 01:30 9,7 C 8,9 C 5,0 C 69 % 1025,5 hPa 0,0 l/m 0 min 0 min 0 W/m 9,7 km/h (2 Bft) 95,74 %
18.04.2023 01:32 9,7 C 8,9 C 5,0 C 69 % 1025,5 hPa 0,0 l/m 0 min 0 min 0 W/m 6,4 km/h (2 Bft) 93,62 %
18.04.2023 01:34 9,7 C 8,3 C 5,0 C 69 % 1025,4 hPa 0,0 l/m 0 min 0 min 0 W/m 6,4 km/h (2 Bft) 95,74 %
18.04.2023 01:36 9,6 C 8,3 C 5,0 C 69 % 1025,4 hPa 0,0 l/m 0 min 0 min 0 W/m 6,4 km/h (2 Bft) 93,48 %
18.04.2023 01:38 9,6 C 8,3 C 5,0 C 69 % 1025,5 hPa 0,0 l/m 0 min 0 min 0 W/m 6,4 km/h (2 Bft) 92,00 %
18.04.2023 01:40 9,6 C 8,3 C 5,0 C 69 % 1025,5 hPa 0,0 l/m 0 min 0 min 0 W/m 9,7 km/h (2 Bft) 94,29 %
18.04.2023 01:42 9,5 C 8,3 C 5,0 C 69 % 1025,5 hPa 0,0 l/m 0 min 0 min 0 W/m 6,4 km/h (2 Bft) 95,92 %
18.04.2023 01:44 9,5 C 8,3 C 5,0 C 69 % 1025,5 hPa 0,0 l/m 0 min 0 min 0 W/m 6,4 km/h (2 Bft) 95,74 %
18.04.2023 01:46 9,4 C 8,3 C 5,0 C 69 % 1025,5 hPa 0,0 l/m 0 min 0 min 0 W/m 6,4 km/h (2 Bft) 97,87 %
18.04.2023 01:48 9,4 C 8,3 C 5,0 C 70 % 1025,5 hPa 0,0 l/m 0 min 0 min 0 W/m 3,2 km/h (1 Bft) 97,87 %
18.04.2023 01:50 9,4 C 8,3 C 5,0 C 70 % 1025,5 hPa 0,0 l/m 0 min 0 min 0 W/m 6,4 km/h (2 Bft) 100,00 %
18.04.2023 01:52 9,4 C 8,3 C 5,0 C 70 % 1025,4 hPa 0,0 l/m 0 min 0 min 0 W/m 12,9 km/h (3 Bft) 93,62 %
18.04.2023 01:54 9,3 C 8,3 C 5,0 C 69 % 1025,5 hPa 0,0 l/m 0 min 0 min 0 W/m 6,4 km/h (2 Bft) 95,74 %
18.04.2023 01:56 9,3 C 8,3 C 5,0 C 69 % 1025,5 hPa 0,0 l/m 0 min 0 min 0 W/m 9,7 km/h (2 Bft) 95,74 %
18.04.2023 01:58 9,3 C 8,3 C 5,0 C 70 % 1025,4 hPa 0,0 l/m 0 min 0 min 0 W/m 16,1 km/h (3 Bft) 97,87 %
18.04.2023 02:00 9,3 C 8,3 C 5,0 C 69 % 1025,5 hPa 0,0 l/m 0 min 0 min 0 W/m 22,5 km/h (4 Bft) 97,87 %
18.04.2023 02:02 9,2 C 8,3 C 5,0 C 69 % 1025,5 hPa 0,0 l/m 0 min 0 min 0 W/m 6,4 km/h (2 Bft) 97,87 %
18.04.2023 02:04 9,2 C 8,3 C 5,0 C 70 % 1025,5 hPa 0,0 l/m 0 min 0 min 0 W/m 6,4 km/h (2 Bft) 97,83 %
18.04.2023 02:06 9,2 C 8,3 C 4,4 C 70 % 1025,4 hPa 0,0 l/m 0 min 0 min 0 W/m 9,7 km/h (2 Bft) 94,92 %
18.04.2023 02:08 9,2 C 7,8 C 4,4 C 70 % 1025,5 hPa 0,0 l/m 0 min 0 min 0 W/m 6,4 km/h (2 Bft) 100,00 %
18.04.2023 02:10 9,2 C 7,8 C 4,4 C 70 % 1025,5 hPa 0,0 l/m 0 min 0 min 0 W/m 6,4 km/h (2 Bft) 100,00 %
18.04.2023 02:12 9,1 C 7,8 C 4,4 C 70 % 1025,5 hPa 0,0 l/m 0 min 0 min 0 W/m 0,0 km/h (0 Bft) 97,05 %
18.04.2023 02:14 9,1 C 7,8 C 4,4 C 70 % 1025,5 hPa 0,0 l/m 0 min 0 min 0 W/m 12,9 km/h (3 Bft) 100,00 %
18.04.2023 02:16 9,1 C 7,8 C 4,4 C 70 % 1025,5 hPa 0,0 l/m 0 min 0 min 0 W/m 9,7 km/h (2 Bft) 93,62 %
18.04.2023 02:18 9,0 C 7,8 C 4,4 C 70 % 1025,5 hPa 0,0 l/m 0 min 0 min 0 W/m 12,9 km/h (3 Bft) 97,87 %
18.04.2023 02:20 8,9 C 7,8 C 4,4 C 70 % 1025,4 hPa 0,0 l/m 0 min 0 min 0 W/m 12,9 km/h (3 Bft) 95,74 %
18.04.2023 02:22 8,9 C 7,8 C 4,4 C 71 % 1025,4 hPa 0,0 l/m 0 min 0 min 0 W/m 9,7 km/h (2 Bft) 100,00 %
18.04.2023 02:24 8,9 C 7,8 C 4,4 C 71 % 1025,4 hPa 0,0 l/m 0 min 0 min 0 W/m 9,7 km/h (2 Bft) 100,00 %
18.04.2023 02:26 8,8 C 7,8 C 4,4 C 71 % 1025,5 hPa 0,0 l/m 0 min 0 min 0 W/m 6,4 km/h (2 Bft) 100,00 %
18.04.2023 02:28 8,8 C 7,8 C 4,4 C 71 % 1025,4 hPa 0,0 l/m 0 min 0 min 0 W/m 6,4 km/h (2 Bft) 100,00 %
18.04.2023 02:30 8,8 C 7,8 C 4,4 C 72 % 1025,4 hPa 0,0 l/m 0 min 0 min 0 W/m 6,4 km/h (2 Bft) 100,00 %
18.04.2023 02:32 8,8 C 7,8 C 4,4 C 72 % 1025,4 hPa 0,0 l/m 0 min 0 min 0 W/m 16,1 km/h (3 Bft) 100,00 %
18.04.2023 02:34 8,7 C 7,8 C 4,4 C 72 % 1025,4 hPa 0,0 l/m 0 min 0 min 0 W/m 12,9 km/h (3 Bft) 100,00 %
18.04.2023 02:36 8,7 C 7,8 C 4,4 C 72 % 1025,4 hPa 0,0 l/m 0 min 0 min 0 W/m 3,2 km/h (1 Bft) 100,00 %
18.04.2023 02:38 8,7 C 7,8 C 3,9 C 72 % 1025,4 hPa 0,0 l/m 0 min 0 min 0 W/m 9,7 km/h (2 Bft) 100,00 %
18.04.2023 02:40 8,7 C 7,8 C 3,9 C 72 % 1025,4 hPa 0,0 l/m 0 min 0 min 0 W/m 9,7 km/h (2 Bft) 100,00 %
18.04.2023 02:42 8,6 C 7,2 C 3,9 C 72 % 1025,4 hPa 0,0 l/m 0 min 0 min 0 W/m 9,7 km/h (2 Bft) 100,00 %
18.04.2023 02:44 8,6 C 7,8 C 3,9 C 73 % 1025,4 hPa 0,0 l/m 0 min 0 min 0 W/m 12,9 km/h (3 Bft) 100,00 %
18.04.2023 02:46 8,6 C 7,8 C 3,9 C 73 % 1025,4 hPa 0,0 l/m 0 min 0 min 0 W/m 6,4 km/h (2 Bft) 100,00 %
18.04.2023 02:48 8,6 C 7,2 C 3,9 C 73 % 1025,4 hPa 0,0 l/m 0 min 0 min 0 W/m 12,9 km/h (3 Bft) 100,00 %
18.04.2023 02:50 8,5 C 7,2 C 3,9 C 73 % 1025,4 hPa 0,0 l/m 0 min 0 min 0 W/m 6,4 km/h (2 Bft) 100,00 %
18.04.2023 02:52 8,5 C 7,2 C 3,9 C 74 % 1025,3 hPa 0,0 l/m 0 min 0 min 0 W/m 19,3 km/h (3 Bft) 100,00 %
18.04.2023 02:54 8,4 C 7,2 C 3,9 C 74 % 1025,3 hPa 0,0 l/m 0 min 0 min 0 W/m 16,1 km/h (3 Bft) 100,00 %
18.04.2023 02:56 8,4 C 7,2 C 3,9 C 74 % 1025,3 hPa 0,0 l/m 0 min 0 min 0 W/m 16,1 km/h (3 Bft) 100,00 %
18.04.2023 02:58 8,4 C 7,2 C 3,9 C 75 % 1025,3 hPa 0,0 l/m 0 min 0 min 0 W/m 16,1 km/h (3 Bft) 97,14 %
18.04.2023 03:00 8,4 C 7,2 C 3,9 C 75 % 1025,2 hPa 0,0 l/m 0 min 0 min 0 W/m 16,1 km/h (3 Bft) 100,00 %
18.04.2023 03:02 8,4 C 7,2 C 3,9 C 75 % 1025,3 hPa 0,0 l/m 0 min 0 min 0 W/m 12,9 km/h (3 Bft) 100,00 %
18.04.2023 03:04 8,4 C 7,2 C 3,9 C 75 % 1025,2 hPa 0,0 l/m 0 min 0 min 0 W/m 19,3 km/h (3 Bft) 100,00 %
18.04.2023 03:06 8,3 C 7,2 C 3,9 C 76 % 1025,2 hPa 0,0 l/m 0 min 0 min 0 W/m 16,1 km/h (3 Bft) 100,00 %
18.04.2023 03:08 8,3 C 7,2 C 3,9 C 76 % 1025,2 hPa 0,0 l/m 0 min 0 min 0 W/m 16,1 km/h (3 Bft) 100,00 %
18.04.2023 03:10 8,3 C 7,2 C 3,9 C 76 % 1025,2 hPa 0,0 l/m 0 min 0 min 0 W/m 9,7 km/h (2 Bft) 100,00 %
18.04.2023 03:12 8,3 C 7,2 C 3,9 C 77 % 1025,2 hPa 0,0 l/m 0 min 0 min 0 W/m 19,3 km/h (3 Bft) 95,74 %
18.04.2023 03:14 8,2 C 7,2 C 3,9 C 77 % 1025,2 hPa 0,0 l/m 0 min 0 min 0 W/m 22,5 km/h (4 Bft) 97,87 %
18.04.2023 03:16 8,2 C 7,2 C 3,9 C 77 % 1025,2 hPa 0,0 l/m 0 min 0 min 0 W/m 19,3 km/h (3 Bft) 100,00 %
18.04.2023 03:18 8,2 C 7,2 C 3,9 C 78 % 1025,2 hPa 0,0 l/m 0 min 0 min 0 W/m 16,1 km/h (3 Bft) 100,00 %
18.04.2023 03:20 8,2 C 7,2 C 3,9 C 78 % 1025,2 hPa 0,0 l/m 0 min 0 min 0 W/m 16,1 km/h (3 Bft) 100,00 %
18.04.2023 03:22 8,2 C 7,2 C 3,3 C 78 % 1025,2 hPa 0,0 l/m 0 min 0 min 0 W/m 9,7 km/h (2 Bft) 98,08 %
18.04.2023 03:24 8,1 C 7,2 C 3,3 C 78 % 1025,1 hPa 0,0 l/m 0 min 0 min 0 W/m 12,9 km/h (3 Bft) 97,87 %
18.04.2023 03:26 8,1 C 7,2 C 3,3 C 79 % 1025,2 hPa 0,0 l/m 0 min 0 min 0 W/m 12,9 km/h (3 Bft) 95,74 %
18.04.2023 03:28 8,1 C 7,2 C 3,3 C 79 % 1025,1 hPa 0,0 l/m 0 min 0 min 0 W/m 12,9 km/h (3 Bft) 95,74 %
18.04.2023 03:30 8,0 C 6,7 C 3,3 C 79 % 1025,1 hPa 0,0 l/m 0 min 0 min 0 W/m 19,3 km/h (3 Bft) 95,74 %
18.04.2023 03:32 8,0 C 6,7 C 3,3 C 79 % 1025,1 hPa 0,0 l/m 0 min 0 min 0 W/m 16,1 km/h (3 Bft) 95,74 %
18.04.2023 03:34 7,9 C 6,7 C 3,3 C 79 % 1025,1 hPa 0,0 l/m 0 min 0 min 0 W/m 16,1 km/h (3 Bft) 93,48 %
18.04.2023 03:36 7,9 C 6,7 C 3,3 C 80 % 1025,0 hPa 0,0 l/m 0 min 0 min 0 W/m 22,5 km/h (4 Bft) 95,74 %
18.04.2023 03:38 7,9 C 6,7 C 3,3 C 80 % 1025,1 hPa 0,0 l/m 0 min 0 min 0 W/m 16,1 km/h (3 Bft) 93,62 %
18.04.2023 03:40 7,8 C 6,7 C 3,3 C 80 % 1025,1 hPa 0,0 l/m 0 min 0 min 0 W/m 19,3 km/h (3 Bft) 95,74 %
18.04.2023 03:42 7,8 C 6,7 C 3,3 C 80 % 1025,1 hPa 0,0 l/m 0 min 0 min 0 W/m 12,9 km/h (3 Bft) 97,87 %
18.04.2023 03:44 7,8 C 6,7 C 3,3 C 80 % 1025,1 hPa 0,0 l/m 0 min 0 min 0 W/m 9,7 km/h (2 Bft) 95,74 %
18.04.2023 03:46 7,8 C 6,7 C 3,3 C 80 % 1025,0 hPa 0,0 l/m 0 min 0 min 0 W/m 9,7 km/h (2 Bft) 93,62 %
18.04.2023 03:48 7,7 C 6,7 C 3,3 C 80 % 1025,0 hPa 0,0 l/m 0 min 0 min 0 W/m 12,9 km/h (3 Bft) 95,74 %
18.04.2023 03:50 7,7 C 6,7 C 3,3 C 81 % 1025,0 hPa 0,0 l/m 0 min 0 min 0 W/m 9,7 km/h (2 Bft) 95,74 %
18.04.2023 03:52 7,7 C 6,7 C 3,3 C 81 % 1025,0 hPa 0,0 l/m 0 min 0 min 0 W/m 12,9 km/h (3 Bft) 93,88 %
18.04.2023 03:54 7,6 C 6,7 C 3,3 C 81 % 1025,0 hPa 0,0 l/m 0 min 0 min 0 W/m 16,1 km/h (3 Bft) 97,87 %
18.04.2023 03:56 7,6 C 6,7 C 3,3 C 81 % 1025,0 hPa 0,0 l/m 0 min 0 min 0 W/m 19,3 km/h (3 Bft) 97,87 %
18.04.2023 03:58 7,6 C 6,7 C 2,8 C 81 % 1024,9 hPa 0,0 l/m 0 min 0 min 0 W/m 12,9 km/h (3 Bft) 95,65 %
18.04.2023 04:00 7,5 C 6,7 C 2,8 C 81 % 1024,9 hPa 0,0 l/m 0 min 0 min 0 W/m 19,3 km/h (3 Bft) 93,75 %
18.04.2023 04:02 7,5 C 6,7 C 2,8 C 82 % 1024,9 hPa 0,0 l/m 0 min 0 min 0 W/m 12,9 km/h (3 Bft) 94,29 %
18.04.2023 04:04 7,4 C 6,7 C 2,8 C 82 % 1024,9 hPa 0,0 l/m 0 min 0 min 0 W/m 12,9 km/h (3 Bft) 95,74 %
18.04.2023 04:06 7,4 C 6,7 C 2,8 C 82 % 1024,9 hPa 0,0 l/m 0 min 0 min 0 W/m 12,9 km/h (3 Bft) 96,08 %
18.04.2023 04:08 7,4 C 6,7 C 2,8 C 82 % 1024,9 hPa 0,0 l/m 0 min 0 min 0 W/m 9,7 km/h (2 Bft) 96,23 %
18.04.2023 04:10 7,4 C 6,1 C 2,8 C 82 % 1024,9 hPa 0,0 l/m 0 min 0 min 0 W/m 9,7 km/h (2 Bft) 97,87 %
18.04.2023 04:12 7,3 C 6,1 C 2,8 C 82 % 1024,8 hPa 0,0 l/m 0 min 0 min 0 W/m 16,1 km/h (3 Bft) 95,65 %
18.04.2023 04:14 7,3 C 6,1 C 2,8 C 82 % 1024,9 hPa 0,0 l/m 0 min 0 min 0 W/m 16,1 km/h (3 Bft) 95,74 %
18.04.2023 04:16 7,3 C 6,1 C 2,8 C 82 % 1024,9 hPa 0,0 l/m 0 min 0 min 0 W/m 9,7 km/h (2 Bft) 97,87 %
18.04.2023 04:18 7,3 C 6,1 C 2,8 C 82 % 1024,9 hPa 0,0 l/m 0 min 0 min 0 W/m 19,3 km/h (3 Bft) 97,87 %
18.04.2023 04:20 7,3 C 6,1 C 2,8 C 83 % 1024,9 hPa 0,0 l/m 0 min 0 min 0 W/m 12,9 km/h (3 Bft) 97,87 %
18.04.2023 04:22 7,2 C 6,1 C 2,8 C 83 % 1024,8 hPa 0,0 l/m 0 min 0 min 0 W/m 12,9 km/h (3 Bft) 97,87 %
18.04.2023 04:24 7,2 C 6,1 C 2,8 C 83 % 1024,8 hPa 0,0 l/m 0 min 0 min 0 W/m 12,9 km/h (3 Bft) 97,87 %
18.04.2023 04:26 7,2 C 6,1 C 2,8 C 83 % 1024,8 hPa 0,0 l/m 0 min 0 min 0 W/m 19,3 km/h (3 Bft) 95,83 %
18.04.2023 04:28 7,2 C 6,1 C 2,8 C 83 % 1024,8 hPa 0,0 l/m 0 min 0 min 0 W/m 16,1 km/h (3 Bft) 97,37 %
18.04.2023 04:30 7,1 C 6,1 C 2,8 C 83 % 1024,8 hPa 0,0 l/m 0 min 0 min 0 W/m 9,7 km/h (2 Bft) 97,83 %
18.04.2023 04:32 7,1 C 6,1 C 2,8 C 83 % 1024,8 hPa 0,0 l/m 0 min 0 min 0 W/m 12,9 km/h (3 Bft) 97,87 %
18.04.2023 04:34 7,1 C 6,1 C 2,8 C 83 % 1024,8 hPa 0,0 l/m 0 min 0 min 0 W/m 9,7 km/h (2 Bft) 97,87 %
18.04.2023 04:36 7,1 C 6,1 C 2,8 C 83 % 1024,8 hPa 0,0 l/m 0 min 0 min 0 W/m 9,7 km/h (2 Bft) 93,62 %
18.04.2023 04:38 7,0 C 6,1 C 2,8 C 83 % 1024,9 hPa 0,0 l/m 0 min 0 min 0 W/m 16,1 km/h (3 Bft) 97,87 %
18.04.2023 04:40 7,0 C 6,1 C 2,8 C 84 % 1024,8 hPa 0,0 l/m 0 min 0 min 0 W/m 6,4 km/h (2 Bft) 95,83 %
18.04.2023 04:42 6,9 C 6,1 C 2,8 C 84 % 1024,9 hPa 0,0 l/m 0 min 0 min 0 W/m 9,7 km/h (2 Bft) 97,87 %
18.04.2023 04:44 6,9 C 6,1 C 2,2 C 84 % 1024,9 hPa 0,0 l/m 0 min 0 min 0 W/m 9,7 km/h (2 Bft) 97,87 %
18.04.2023 04:46 6,9 C 5,6 C 2,2 C 84 % 1024,9 hPa 0,0 l/m 0 min 0 min 0 W/m 9,7 km/h (2 Bft) 97,87 %
18.04.2023 04:48 6,8 C 5,6 C 2,2 C 84 % 1024,9 hPa 0,0 l/m 0 min 0 min 0 W/m 16,1 km/h (3 Bft) 95,74 %
18.04.2023 04:50 6,8 C 5,6 C 2,2 C 84 % 1024,9 hPa 0,0 l/m 0 min 0 min 0 W/m 9,7 km/h (2 Bft) 97,87 %
18.04.2023 04:52 6,8 C 5,6 C 2,2 C 84 % 1024,9 hPa 0,0 l/m 0 min 0 min 0 W/m 9,7 km/h (2 Bft) 93,62 %
18.04.2023 04:54 6,8 C 5,6 C 2,2 C 84 % 1024,9 hPa 0,0 l/m 0 min 0 min 0 W/m 19,3 km/h (3 Bft) 100,00 %
18.04.2023 04:56 6,7 C 5,6 C 2,2 C 84 % 1024,8 hPa 0,0 l/m 0 min 0 min 0 W/m 16,1 km/h (3 Bft) 100,00 %
18.04.2023 04:58 6,7 C 5,6 C 2,2 C 85 % 1024,9 hPa 0,0 l/m 0 min 0 min 0 W/m 12,9 km/h (3 Bft) 97,87 %
18.04.2023 05:00 6,7 C 5,6 C 2,2 C 84 % 1024,9 hPa 0,0 l/m 0 min 0 min 0 W/m 12,9 km/h (3 Bft) 100,00 %
18.04.2023 05:02 6,7 C 5,6 C 2,2 C 85 % 1024,9 hPa 0,0 l/m 0 min 0 min 0 W/m 6,4 km/h (2 Bft) 89,36 %
18.04.2023 05:04 6,6 C 5,6 C 2,2 C 85 % 1024,8 hPa 0,0 l/m 0 min 0 min 0 W/m 12,9 km/h (3 Bft) 97,92 %
18.04.2023 05:06 6,6 C 5,6 C 2,2 C 85 % 1024,8 hPa 0,0 l/m 0 min 0 min 0 W/m 12,9 km/h (3 Bft) 97,83 %
18.04.2023 05:08 6,6 C 5,6 C 2,2 C 85 % 1024,8 hPa 0,0 l/m 0 min 0 min 0 W/m 12,9 km/h (3 Bft) 97,87 %
18.04.2023 05:10 6,6 C 5,6 C 2,2 C 85 % 1024,9 hPa 0,0 l/m 0 min 0 min 0 W/m 12,9 km/h (3 Bft) 95,74 %
18.04.2023 05:12 6,6 C 5,6 C 2,2 C 85 % 1024,9 hPa 0,0 l/m 0 min 0 min 0 W/m 16,1 km/h (3 Bft) 97,87 %
18.04.2023 05:14 6,5 C 5,6 C 2,2 C 85 % 1024,9 hPa 0,0 l/m 0 min 0 min 0 W/m 16,1 km/h (3 Bft) 97,87 %
18.04.2023 05:16 6,5 C 5,6 C 2,2 C 85 % 1024,9 hPa 0,0 l/m 0 min 0 min 0 W/m 16,1 km/h (3 Bft) 93,62 %
18.04.2023 05:18 6,5 C 5,6 C 2,2 C 85 % 1024,9 hPa 0,0 l/m 0 min 0 min 0 W/m 12,9 km/h (3 Bft) 97,87 %
18.04.2023 05:20 6,5 C 5,6 C 2,2 C 85 % 1024,9 hPa 0,0 l/m 0 min 0 min 0 W/m 9,7 km/h (2 Bft) 97,83 %
18.04.2023 05:22 6,5 C 5,6 C 2,2 C 85 % 1024,9 hPa 0,0 l/m 0 min 0 min 0 W/m 16,1 km/h (3 Bft) 91,49 %
18.04.2023 05:24 6,4 C 5,6 C 2,2 C 85 % 1024,9 hPa 0,0 l/m 0 min 0 min 0 W/m 12,9 km/h (3 Bft) 97,92 %
18.04.2023 05:26 6,4 C 5,6 C 2,2 C 85 % 1024,9 hPa 0,0 l/m 0 min 0 min 0 W/m 12,9 km/h (3 Bft) 97,87 %
18.04.2023 05:28 6,4 C 5,6 C 2,2 C 85 % 1024,9 hPa 0,0 l/m 0 min 0 min 0 W/m 16,1 km/h (3 Bft) 93,62 %
18.04.2023 05:30 6,3 C 5,6 C 2,2 C 85 % 1024,9 hPa 0,0 l/m 0 min 0 min 0 W/m 22,5 km/h (4 Bft) 97,87 %
18.04.2023 05:32 6,3 C 5,6 C 2,2 C 86 % 1024,9 hPa 0,0 l/m 0 min 0 min 0 W/m 9,7 km/h (2 Bft) 97,87 %
18.04.2023 05:34 6,3 C 5,6 C 2,2 C 86 % 1024,9 hPa 0,0 l/m 0 min 0 min 0 W/m 9,7 km/h (2 Bft) 94,29 %
18.04.2023 05:36 6,3 C 5,6 C 2,2 C 86 % 1024,9 hPa 0,0 l/m 0 min 0 min 0 W/m 12,9 km/h (3 Bft) 98,15 %
18.04.2023 05:38 6,3 C 5,6 C 2,2 C 86 % 1024,9 hPa 0,0 l/m 0 min 0 min 0 W/m 9,7 km/h (2 Bft) 100,00 %
18.04.2023 05:40 6,3 C 5,6 C 2,2 C 86 % 1024,9 hPa 0,0 l/m 0 min 0 min 0 W/m 9,7 km/h (2 Bft) 91,49 %
18.04.2023 05:42 6,2 C 5,6 C 2,2 C 86 % 1024,9 hPa 0,0 l/m 0 min 0 min 0 W/m 12,9 km/h (3 Bft) 100,00 %
18.04.2023 05:44 6,2 C 5,6 C 2,2 C 86 % 1024,9 hPa 0,0 l/m 0 min 0 min 0 W/m 9,7 km/h (2 Bft) 100,00 %
18.04.2023 05:46 6,2 C 5,0 C 1,7 C 86 % 1024,9 hPa 0,0 l/m 0 min 0 min 0 W/m 9,7 km/h (2 Bft) 97,87 %
18.04.2023 05:48 6,2 C 5,0 C 1,7 C 86 % 1024,9 hPa 0,0 l/m 0 min 0 min 0 W/m 12,9 km/h (3 Bft) 100,00 %
18.04.2023 05:50 6,2 C 5,0 C 1,7 C 86 % 1024,9 hPa 0,0 l/m 0 min 0 min 0 W/m 19,3 km/h (3 Bft) 97,83 %
18.04.2023 05:52 6,2 C 5,0 C 1,7 C 86 % 1025,0 hPa 0,0 l/m 0 min 0 min 0 W/m 9,7 km/h (2 Bft) 93,62 %
18.04.2023 05:54 6,1 C 5,0 C 1,7 C 86 % 1025,0 hPa 0,0 l/m 0 min 0 min 0 W/m 9,7 km/h (2 Bft) 97,87 %
18.04.2023 05:56 6,1 C 5,0 C 1,7 C 86 % 1025,0 hPa 0,0 l/m 0 min 0 min 0 W/m 9,7 km/h (2 Bft) 95,74 %
18.04.2023 05:58 6,1 C 5,0 C 1,7 C 86 % 1025,0 hPa 0,0 l/m 0 min 0 min 0 W/m 16,1 km/h (3 Bft) 95,74 %
18.04.2023 06:00 6,1 C 5,0 C 1,7 C 86 % 1025,0 hPa 0,0 l/m 0 min 0 min 0 W/m 6,4 km/h (2 Bft) 97,87 %
18.04.2023 06:02 6,1 C 5,0 C 1,7 C 86 % 1025,0 hPa 0,0 l/m 0 min 0 min 0 W/m 9,7 km/h (2 Bft) 93,48 %
18.04.2023 06:04 6,1 C 5,0 C 1,7 C 86 % 1025,0 hPa 0,0 l/m 0 min 0 min 0 W/m 9,7 km/h (2 Bft) 97,87 %
18.04.2023 06:07 6,0 C 5,0 C 1,7 C 87 % 1025,0 hPa 0,0 l/m 0 min 0 min 0 W/m 9,7 km/h (2 Bft) 97,26 %
18.04.2023 06:08 6,1 C 5,0 C 1,7 C 87 % 1025,0 hPa 0,0 l/m 0 min 0 min 0 W/m 12,9 km/h (3 Bft) 95,65 %
18.04.2023 06:10 6,0 C 5,0 C 1,7 C 87 % 1025,0 hPa 0,0 l/m 0 min 0 min 0 W/m 12,9 km/h (3 Bft) 97,87 %
18.04.2023 06:12 6,0 C 5,0 C 1,7 C 87 % 1025,0 hPa 0,0 l/m 0 min 0 min 0 W/m 16,1 km/h (3 Bft) 97,87 %
18.04.2023 06:14 6,0 C 5,0 C 1,7 C 86 % 1025,0 hPa 0,0 l/m 0 min 0 min 0 W/m 9,7 km/h (2 Bft) 97,87 %
18.04.2023 06:16 5,9 C 5,0 C 1,7 C 86 % 1025,1 hPa 0,0 l/m 0 min 0 min 0 W/m 9,7 km/h (2 Bft) 97,83 %
18.04.2023 06:18 5,9 C 5,0 C 1,7 C 87 % 1025,1 hPa 0,0 l/m 0 min 0 min 0 W/m 12,9 km/h (3 Bft) 97,87 %
18.04.2023 06:20 5,9 C 5,0 C 1,7 C 87 % 1025,1 hPa 0,0 l/m 0 min 0 min 0 W/m 12,9 km/h (3 Bft) 97,87 %
18.04.2023 06:22 5,9 C 5,0 C 1,7 C 87 % 1025,1 hPa 0,0 l/m 0 min 0 min 0 W/m 9,7 km/h (2 Bft) 97,87 %
18.04.2023 06:24 5,9 C 5,0 C 1,7 C 87 % 1025,1 hPa 0,0 l/m 0 min 0 min 0 W/m 9,7 km/h (2 Bft) 97,87 %
18.04.2023 06:26 5,9 C 5,0 C 1,7 C 87 % 1025,1 hPa 0,0 l/m 0 min 0 min 0 W/m 9,7 km/h (2 Bft) 97,87 %
18.04.2023 06:28 5,9 C 5,0 C 1,7 C 87 % 1025,2 hPa 0,0 l/m 0 min 0 min 0 W/m 12,9 km/h (3 Bft) 100,00 %
18.04.2023 06:30 5,9 C 5,0 C 1,7 C 87 % 1025,1 hPa 0,0 l/m 0 min 0 min 0 W/m 9,7 km/h (2 Bft) 100,00 %
18.04.2023 06:32 5,8 C 5,0 C 1,7 C 87 % 1025,2 hPa 0,0 l/m 0 min 0 min 0 W/m 9,7 km/h (2 Bft) 51,22 %
18.04.2023 06:34 5,8 C 5,0 C 1,7 C 87 % 1025,2 hPa 0,0 l/m 0 min 0 min 0 W/m 12,9 km/h (3 Bft) 100,00 %
18.04.2023 06:36 5,8 C 5,0 C 1,7 C 87 % 1025,2 hPa 0,0 l/m 0 min 0 min 0 W/m 19,3 km/h (3 Bft) 100,00 %
18.04.2023 06:38 5,8 C 5,0 C 1,7 C 87 % 1025,2 hPa 0,0 l/m 0 min 0 min 0 W/m 12,9 km/h (3 Bft) 100,00 %
18.04.2023 06:40 5,8 C 5,0 C 1,7 C 87 % 1025,2 hPa 0,0 l/m 0 min 0 min 5 W/m 9,7 km/h (2 Bft) 100,00 %
18.04.2023 06:42 5,8 C 5,0 C 1,7 C 87 % 1025,2 hPa 0,0 l/m 0 min 0 min 5 W/m 9,7 km/h (2 Bft) 100,00 %
18.04.2023 06:44 5,8 C 5,0 C 1,7 C 87 % 1025,2 hPa 0,0 l/m 0 min 0 min 5 W/m 9,7 km/h (2 Bft) 100,00 %
18.04.2023 06:46 5,8 C 5,0 C 1,7 C 87 % 1025,2 hPa 0,0 l/m 0 min 0 min 6 W/m 9,7 km/h (2 Bft) 93,62 %
18.04.2023 06:48 5,8 C 5,0 C 1,7 C 87 % 1025,3 hPa 0,0 l/m 0 min 0 min 7 W/m 6,4 km/h (2 Bft) 97,87 %
18.04.2023 06:50 5,8 C 5,0 C 1,7 C 87 % 1025,3 hPa 0,0 l/m 0 min 0 min 9 W/m 6,4 km/h (2 Bft) 100,00 %
18.04.2023 06:52 5,7 C 5,0 C 1,7 C 88 % 1025,3 hPa 0,0 l/m 0 min 0 min 9 W/m 6,4 km/h (2 Bft) 100,00 %
18.04.2023 06:54 5,7 C 5,0 C 1,7 C 88 % 1025,3 hPa 0,0 l/m 0 min 0 min 11 W/m 6,4 km/h (2 Bft) 97,87 %
18.04.2023 06:56 5,7 C 5,0 C 1,7 C 88 % 1025,3 hPa 0,0 l/m 0 min 0 min 11 W/m 6,4 km/h (2 Bft) 97,87 %
18.04.2023 06:58 5,7 C 5,0 C 1,7 C 88 % 1025,3 hPa 0,0 l/m 0 min 0 min 11 W/m 9,7 km/h (2 Bft) 97,83 %
18.04.2023 07:00 5,7 C 5,0 C 1,7 C 88 % 1025,3 hPa 0,0 l/m 0 min 0 min 12 W/m 6,4 km/h (2 Bft) 93,62 %
18.04.2023 07:02 5,7 C 5,0 C 1,7 C 88 % 1025,4 hPa 0,0 l/m 0 min 0 min 12 W/m 6,4 km/h (2 Bft) 97,87 %
18.04.2023 07:04 5,7 C 5,0 C 1,7 C 88 % 1025,4 hPa 0,0 l/m 0 min 0 min 14 W/m 9,7 km/h (2 Bft) 100,00 %
18.04.2023 07:06 5,6 C 5,0 C 1,7 C 88 % 1025,5 hPa 0,0 l/m 0 min 0 min 14 W/m 6,4 km/h (2 Bft) 97,87 %
18.04.2023 07:08 5,6 C 5,0 C 1,7 C 88 % 1025,5 hPa 0,0 l/m 0 min 0 min 14 W/m 6,4 km/h (2 Bft) 97,87 %
18.04.2023 07:10 5,6 C 5,0 C 1,7 C 88 % 1025,5 hPa 0,0 l/m 0 min 0 min 14 W/m 6,4 km/h (2 Bft) 95,74 %
18.04.2023 07:12 5,6 C 5,0 C 1,7 C 88 % 1025,6 hPa 0,0 l/m 0 min 0 min 16 W/m 9,7 km/h (2 Bft) 97,83 %
18.04.2023 07:14 5,6 C 5,0 C 1,7 C 88 % 1025,6 hPa 0,0 l/m 0 min 0 min 16 W/m 9,7 km/h (2 Bft) 93,62 %
18.04.2023 07:16 5,6 C 5,0 C 1,7 C 88 % 1025,6 hPa 0,0 l/m 0 min 0 min 16 W/m 6,4 km/h (2 Bft) 95,74 %
18.04.2023 07:18 5,6 C 5,0 C 1,7 C 89 % 1025,6 hPa 0,0 l/m 0 min 0 min 18 W/m 9,7 km/h (2 Bft) 95,74 %
18.04.2023 07:20 5,6 C 5,0 C 1,7 C 89 % 1025,6 hPa 0,0 l/m 0 min 0 min 19 W/m 6,4 km/h (2 Bft) 93,62 %
18.04.2023 07:22 5,6 C 5,0 C 1,7 C 89 % 1025,6 hPa 0,0 l/m 0 min 0 min 23 W/m 6,4 km/h (2 Bft) 95,74 %
18.04.2023 07:24 5,6 C 5,0 C 1,7 C 89 % 1025,6 hPa 0,0 l/m 0 min 0 min 26 W/m 3,2 km/h (1 Bft) 97,87 %
18.04.2023 07:26 5,6 C 5,0 C 1,7 C 89 % 1025,6 hPa 0,0 l/m 0 min 0 min 27 W/m 6,4 km/h (2 Bft) 97,83 %
18.04.2023 07:28 5,6 C 5,0 C 1,7 C 89 % 1025,6 hPa 0,0 l/m 0 min 0 min 30 W/m 9,7 km/h (2 Bft) 93,62 %
18.04.2023 07:30 5,7 C 5,6 C 1,7 C 89 % 1025,6 hPa 0,0 l/m 0 min 0 min 30 W/m 9,7 km/h (2 Bft) 100,00 %
18.04.2023 07:32 5,7 C 5,6 C 1,7 C 89 % 1025,7 hPa 0,0 l/m 0 min 0 min 30 W/m 9,7 km/h (2 Bft) 97,87 %
18.04.2023 07:34 5,8 C 5,6 C 2,2 C 89 % 1025,7 hPa 0,0 l/m 0 min 0 min 30 W/m 6,4 km/h (2 Bft) 97,87 %
18.04.2023 07:36 5,8 C 5,6 C 2,2 C 89 % 1025,7 hPa 0,0 l/m 0 min 0 min 30 W/m 6,4 km/h (2 Bft) 82,98 %
18.04.2023 07:38 5,8 C 5,6 C 2,2 C 90 % 1025,8 hPa 0,0 l/m 0 min 0 min 30 W/m 9,7 km/h (2 Bft) 55,17 %
18.04.2023 07:40 5,9 C 5,6 C 2,2 C 90 % 1025,8 hPa 0,0 l/m 0 min 0 min 28 W/m 6,4 km/h (2 Bft) 97,83 %
18.04.2023 07:42 5,9 C 6,1 C 2,2 C 90 % 1025,8 hPa 0,0 l/m 0 min 0 min 28 W/m 9,7 km/h (2 Bft) 93,62 %
18.04.2023 07:44 6,1 C 6,1 C 2,2 C 90 % 1025,9 hPa 0,0 l/m 0 min 0 min 30 W/m 6,4 km/h (2 Bft) 93,62 %
18.04.2023 07:46 6,1 C 6,1 C 2,2 C 90 % 1025,9 hPa 0,0 l/m 0 min 0 min 32 W/m 6,4 km/h (2 Bft) 95,74 %
18.04.2023 07:48 6,2 C 6,1 C 2,2 C 90 % 1025,9 hPa 0,0 l/m 0 min 0 min 33 W/m 9,7 km/h (2 Bft) 95,74 %
18.04.2023 07:50 6,2 C 6,1 C 2,8 C 90 % 1026,0 hPa 0,0 l/m 0 min 0 min 34 W/m 9,7 km/h (2 Bft) 97,87 %
18.04.2023 07:52 6,3 C 6,1 C 2,8 C 89 % 1026,0 hPa 0,0 l/m 0 min 0 min 34 W/m 6,4 km/h (2 Bft) 97,87 %
18.04.2023 07:54 6,3 C 6,1 C 2,8 C 89 % 1026,0 hPa 0,0 l/m 0 min 0 min 32 W/m 9,7 km/h (2 Bft) 97,83 %
18.04.2023 07:56 6,3 C 6,1 C 2,8 C 89 % 1026,0 hPa 0,0 l/m 0 min 0 min 28 W/m 6,4 km/h (2 Bft) 97,87 %
18.04.2023 07:58 6,4 C 6,1 C 2,8 C 89 % 1026,0 hPa 0,0 l/m 0 min 0 min 26 W/m 6,4 km/h (2 Bft) 93,62 %
18.04.2023 08:00 6,4 C 6,1 C 2,8 C 89 % 1026,0 hPa 0,0 l/m 0 min 0 min 29 W/m 9,7 km/h (2 Bft) 97,87 %
18.04.2023 08:02 6,5 C 6,1 C 2,8 C 89 % 1026,0 hPa 0,0 l/m 0 min 0 min 32 W/m 9,7 km/h (2 Bft) 95,74 %
18.04.2023 08:04 6,5 C 6,7 C 2,8 C 89 % 1026,0 hPa 0,0 l/m 0 min 0 min 37 W/m 9,7 km/h (2 Bft) 97,87 %
18.04.2023 08:06 6,6 C 6,7 C 2,8 C 89 % 1026,0 hPa 0,0 l/m 0 min 0 min 40 W/m 12,9 km/h (3 Bft) 100,00 %
18.04.2023 08:08 6,6 C 6,7 C 2,8 C 89 % 1026,0 hPa 0,0 l/m 0 min 0 min 40 W/m 6,4 km/h (2 Bft) 97,87 %
18.04.2023 08:10 6,6 C 6,7 C 2,8 C 89 % 1026,0 hPa 0,0 l/m 0 min 0 min 40 W/m 6,4 km/h (2 Bft) 97,87 %
18.04.2023 08:12 6,7 C 6,7 C 2,8 C 89 % 1026,1 hPa 0,0 l/m 0 min 0 min 43 W/m 6,4 km/h (2 Bft) 100,00 %
18.04.2023 08:14 6,7 C 6,7 C 2,8 C 89 % 1026,1 hPa 0,0 l/m 0 min 0 min 50 W/m 12,9 km/h (3 Bft) 97,87 %
18.04.2023 08:16 6,7 C 6,7 C 2,8 C 88 % 1026,0 hPa 0,0 l/m 0 min 0 min 59 W/m 6,4 km/h (2 Bft) 93,62 %
18.04.2023 08:18 6,8 C 6,7 C 3,3 C 88 % 1026,1 hPa 0,0 l/m 0 min 0 min 67 W/m 9,7 km/h (2 Bft) 97,87 %
18.04.2023 08:20 6,8 C 7,2 C 3,3 C 88 % 1026,1 hPa 0,0 l/m 0 min 0 min 76 W/m 12,9 km/h (3 Bft) 97,83 %
18.04.2023 08:22 6,9 C 7,2 C 3,3 C 88 % 1026,2 hPa 0,0 l/m 0 min 0 min 79 W/m 9,7 km/h (2 Bft) 97,87 %
18.04.2023 08:24 7,0 C 7,2 C 3,3 C 88 % 1026,1 hPa 0,0 l/m 0 min 0 min 83 W/m 6,4 km/h (2 Bft) 97,87 %
18.04.2023 08:26 7,1 C 7,2 C 3,3 C 88 % 1026,2 hPa 0,0 l/m 0 min 0 min 98 W/m 12,9 km/h (3 Bft) 97,87 %
18.04.2023 08:28 7,1 C 7,8 C 3,3 C 88 % 1026,2 hPa 0,0 l/m 0 min 0 min 116 W/m 12,9 km/h (3 Bft) 97,87 %
18.04.2023 08:30 7,2 C 7,8 C 3,9 C 88 % 1026,2 hPa 0,0 l/m 0 min 0 min 124 W/m 9,7 km/h (2 Bft) 97,87 %
18.04.2023 08:32 7,3 C 7,8 C 3,9 C 88 % 1026,2 hPa 0,0 l/m 0 min 0 min 134 W/m 12,9 km/h (3 Bft) 97,87 %
18.04.2023 08:34 7,4 C 8,3 C 3,9 C 87 % 1026,2 hPa 0,0 l/m 0 min 0 min 145 W/m 12,9 km/h (3 Bft) 97,83 %
18.04.2023 08:36 7,5 C 8,3 C 4,4 C 87 % 1026,2 hPa 0,0 l/m 2 min 0 min 161 W/m 22,5 km/h (4 Bft) 95,74 %
18.04.2023 08:38 7,6 C 8,3 C 4,4 C 87 % 1026,2 hPa 0,0 l/m 2 min 0 min 171 W/m 12,9 km/h (3 Bft) 97,87 %
18.04.2023 08:40 7,7 C 8,9 C 4,4 C 87 % 1026,2 hPa 0,0 l/m 2 min 0 min 171 W/m 6,4 km/h (2 Bft) 97,87 %
18.04.2023 08:42 7,8 C 8,9 C 4,4 C 87 % 1026,2 hPa 0,0 l/m 2 min 0 min 167 W/m 6,4 km/h (2 Bft) 97,87 %
18.04.2023 08:44 7,9 C 8,9 C 4,4 C 86 % 1026,2 hPa 0,0 l/m 2 min 0 min 177 W/m 16,1 km/h (3 Bft) 95,74 %
18.04.2023 08:46 8,0 C 9,4 C 4,4 C 86 % 1026,2 hPa 0,0 l/m 2 min 0 min 189 W/m 12,9 km/h (3 Bft) 95,74 %
18.04.2023 08:48 8,1 C 9,4 C 4,4 C 85 % 1026,2 hPa 0,0 l/m 2 min 0 min 191 W/m 12,9 km/h (3 Bft) 95,65 %
18.04.2023 08:50 8,1 C 9,4 C 4,4 C 85 % 1026,3 hPa 0,0 l/m 2 min 0 min 210 W/m 16,1 km/h (3 Bft) 95,74 %
18.04.2023 08:52 8,2 C 9,4 C 4,4 C 85 % 1026,3 hPa 0,0 l/m 2 min 0 min 209 W/m 9,7 km/h (2 Bft) 97,87 %
18.04.2023 08:54 8,3 C 10,0 C 5,0 C 85 % 1026,3 hPa 0,0 l/m 2 min 0 min 348 W/m 6,4 km/h (2 Bft) 95,74 %
18.04.2023 08:56 8,4 C 9,4 C 5,0 C 84 % 1026,3 hPa 0,0 l/m 2 min 0 min 334 W/m 12,9 km/h (3 Bft) 95,74 %
18.04.2023 08:58 8,4 C 10,0 C 5,0 C 84 % 1026,3 hPa 0,0 l/m 2 min 0 min 351 W/m 9,7 km/h (2 Bft) 95,74 %
18.04.2023 09:00 8,6 C 11,1 C 5,0 C 84 % 1026,3 hPa 0,0 l/m 2 min 0 min 352 W/m 9,7 km/h (2 Bft) 97,87 %
18.04.2023 09:02 8,7 C 12,2 C 5,0 C 84 % 1026,2 hPa 0,0 l/m 2 min 0 min 349 W/m 9,7 km/h (2 Bft) 97,83 %
18.04.2023 09:04 8,8 C 13,3 C 5,0 C 83 % 1026,3 hPa 0,0 l/m 2 min 0 min 348 W/m 9,7 km/h (2 Bft) 97,87 %
18.04.2023 09:06 8,9 C 14,4 C 5,0 C 83 % 1026,3 hPa 0,0 l/m 2 min 0 min 359 W/m 9,7 km/h (2 Bft) 97,87 %
18.04.2023 09:08 9,1 C 15,6 C 5,0 C 83 % 1026,3 hPa 0,0 l/m 2 min 0 min 359 W/m 12,9 km/h (3 Bft) 97,87 %
18.04.2023 09:10 9,2 C 16,1 C 5,0 C 82 % 1026,3 hPa 0,0 l/m 2 min 0 min 359 W/m 12,9 km/h (3 Bft) 97,87 %
18.04.2023 09:12 9,3 C 16,1 C 5,0 C 82 % 1026,3 hPa 0,0 l/m 2 min 0 min 358 W/m 19,3 km/h (3 Bft) 97,87 %
18.04.2023 09:14 9,4 C 16,7 C 5,0 C 81 % 1026,3 hPa 0,0 l/m 2 min 0 min 361 W/m 12,9 km/h (3 Bft) 97,87 %
18.04.2023 09:16 9,6 C 16,7 C 5,6 C 81 % 1026,3 hPa 0,0 l/m 2 min 0 min 369 W/m 16,1 km/h (3 Bft) 97,83 %
18.04.2023 09:18 9,7 C 17,2 C 5,6 C 80 % 1026,3 hPa 0,0 l/m 2 min 0 min 376 W/m 12,9 km/h (3 Bft) 97,87 %
18.04.2023 09:20 9,8 C 17,2 C 5,6 C 79 % 1026,3 hPa 0,0 l/m 2 min 0 min 380 W/m 12,9 km/h (3 Bft) 97,87 %
18.04.2023 09:22 9,8 C 17,2 C 5,6 C 79 % 1026,3 hPa 0,0 l/m 2 min 0 min 386 W/m 19,3 km/h (3 Bft) 97,87 %
18.04.2023 09:24 10,0 C 17,8 C 6,1 C 79 % 1026,3 hPa 0,0 l/m 2 min 0 min 395 W/m 12,9 km/h (3 Bft) 97,87 %
18.04.2023 09:26 10,1 C 17,8 C 6,1 C 78 % 1026,4 hPa 0,0 l/m 2 min 0 min 400 W/m 9,7 km/h (2 Bft) 97,87 %
18.04.2023 09:28 10,2 C 18,3 C 6,1 C 78 % 1026,4 hPa 0,0 l/m 2 min 0 min 407 W/m 12,9 km/h (3 Bft) 97,87 %
18.04.2023 09:30 10,3 C 18,3 C 6,1 C 78 % 1026,3 hPa 0,0 l/m 2 min 0 min 412 W/m 12,9 km/h (3 Bft) 100,00 %
18.04.2023 09:32 10,4 C 18,9 C 6,1 C 77 % 1026,3 hPa 0,0 l/m 2 min 0 min 417 W/m 16,1 km/h (3 Bft) 100,00 %
18.04.2023 09:34 10,4 C 18,3 C 6,1 C 77 % 1026,4 hPa 0,0 l/m 2 min 0 min 424 W/m 12,9 km/h (3 Bft) 100,00 %
18.04.2023 09:36 10,5 C 18,9 C 6,7 C 77 % 1026,4 hPa 0,0 l/m 2 min 0 min 433 W/m 12,9 km/h (3 Bft) 100,00 %
18.04.2023 09:38 10,6 C 18,9 C 6,7 C 77 % 1026,3 hPa 0,0 l/m 2 min 0 min 434 W/m 9,7 km/h (2 Bft) 100,00 %
18.04.2023 09:40 10,7 C 18,9 C 6,7 C 77 % 1026,3 hPa 0,0 l/m 2 min 0 min 340 W/m 16,1 km/h (3 Bft) 97,87 %
18.04.2023 09:42 10,7 C 18,9 C 6,7 C 76 % 1026,3 hPa 0,0 l/m 2 min 0 min 248 W/m 22,5 km/h (4 Bft) 100,00 %
18.04.2023 09:44 10,8 C 18,9 C 6,7 C 75 % 1026,3 hPa 0,0 l/m 0 min 0 min 140 W/m 16,1 km/h (3 Bft) 100,00 %
18.04.2023 09:46 10,8 C 18,3 C 6,7 C 75 % 1026,4 hPa 0,0 l/m 0 min 0 min 86 W/m 35,4 km/h (5 Bft) 100,00 %
18.04.2023 09:48 10,8 C 17,8 C 6,7 C 75 % 1026,4 hPa 0,0 l/m 0 min 0 min 94 W/m 19,3 km/h (3 Bft) 100,00 %
18.04.2023 09:50 10,8 C 17,8 C 6,7 C 75 % 1026,4 hPa 0,0 l/m 0 min 0 min 200 W/m 16,1 km/h (3 Bft) 100,00 %
18.04.2023 09:52 10,8 C 17,8 C 6,7 C 75 % 1026,4 hPa 0,0 l/m 2 min 0 min 309 W/m 22,5 km/h (4 Bft) 97,87 %
18.04.2023 09:54 10,8 C 17,2 C 6,7 C 75 % 1026,4 hPa 0,0 l/m 0 min 0 min 207 W/m 25,7 km/h (4 Bft) 100,00 %
18.04.2023 09:56 10,8 C 16,1 C 6,1 C 74 % 1026,4 hPa 0,0 l/m 0 min 0 min 120 W/m 22,5 km/h (4 Bft) 97,87 %
18.04.2023 09:58 10,8 C 15,6 C 6,1 C 75 % 1026,5 hPa 0,0 l/m 0 min 0 min 149 W/m 16,1 km/h (3 Bft) 100,00 %
18.04.2023 10:00 10,8 C 15,6 C 6,1 C 76 % 1026,5 hPa 0,0 l/m 0 min 0 min 189 W/m 19,3 km/h (3 Bft) 97,87 %
18.04.2023 10:02 10,7 C 15,0 C 6,7 C 76 % 1026,5 hPa 0,0 l/m 0 min 0 min 241 W/m 16,1 km/h (3 Bft) 97,87 %
18.04.2023 10:04 10,7 C 15,6 C 6,7 C 76 % 1026,5 hPa 0,0 l/m 2 min 0 min 366 W/m 16,1 km/h (3 Bft) 97,62 %
18.04.2023 10:06 10,7 C 15,6 C 6,7 C 76 % 1026,5 hPa 0,0 l/m 2 min 0 min 543 W/m 19,3 km/h (3 Bft) 97,87 %
18.04.2023 10:08 10,6 C 14,4 C 6,7 C 76 % 1026,5 hPa 0,0 l/m 2 min 0 min 295 W/m 22,5 km/h (4 Bft) 95,74 %
18.04.2023 10:10 10,6 C 13,3 C 6,7 C 76 % 1026,5 hPa 0,0 l/m 0 min 0 min 256 W/m 19,3 km/h (3 Bft) 97,87 %
18.04.2023 10:12 10,5 C 12,8 C 6,7 C 76 % 1026,6 hPa 0,0 l/m 2 min 0 min 269 W/m 19,3 km/h (3 Bft) 97,83 %
18.04.2023 10:14 10,5 C 12,8 C 6,7 C 77 % 1026,6 hPa 0,0 l/m 2 min 0 min 266 W/m 16,1 km/h (3 Bft) 97,87 %
18.04.2023 10:16 10,4 C 12,2 C 6,7 C 77 % 1026,5 hPa 0,0 l/m 0 min 0 min 244 W/m 16,1 km/h (3 Bft) 97,87 %
18.04.2023 10:18 10,4 C 11,7 C 6,1 C 77 % 1026,6 hPa 0,0 l/m 0 min 0 min 227 W/m 19,3 km/h (3 Bft) 97,87 %
18.04.2023 10:20 10,3 C 11,7 C 6,1 C 77 % 1026,6 hPa 0,0 l/m 0 min 0 min 229 W/m 12,9 km/h (3 Bft) 95,74 %
18.04.2023 10:22 10,3 C 11,1 C 6,1 C 77 % 1026,7 hPa 0,0 l/m 0 min 0 min 225 W/m 16,1 km/h (3 Bft) 93,62 %
18.04.2023 10:24 10,2 C 11,1 C 6,1 C 78 % 1026,6 hPa 0,0 l/m 0 min 0 min 217 W/m 9,7 km/h (2 Bft) 97,87 %
18.04.2023 10:26 10,2 C 10,6 C 6,1 C 78 % 1026,7 hPa 0,0 l/m 0 min 0 min 201 W/m 22,5 km/h (4 Bft) 97,83 %
18.04.2023 10:28 10,1 C 10,6 C 5,6 C 77 % 1026,7 hPa 0,0 l/m 0 min 0 min 200 W/m 19,3 km/h (3 Bft) 97,87 %
18.04.2023 10:30 10,0 C 10,6 C 5,6 C 77 % 1026,7 hPa 0,0 l/m 0 min 0 min 204 W/m 16,1 km/h (3 Bft) 97,87 %
18.04.2023 10:32 9,9 C 10,0 C 5,6 C 77 % 1026,6 hPa 0,0 l/m 0 min 0 min 199 W/m 16,1 km/h (3 Bft) 97,87 %
18.04.2023 10:34 9,9 C 10,6 C 5,6 C 78 % 1026,7 hPa 0,0 l/m 0 min 0 min 204 W/m 19,3 km/h (3 Bft) 97,87 %
18.04.2023 10:36 9,9 C 10,6 C 5,6 C 79 % 1026,7 hPa 0,0 l/m 0 min 0 min 204 W/m 32,2 km/h (5 Bft) 97,87 %
18.04.2023 10:38 9,8 C 10,6 C 5,6 C 79 % 1026,7 hPa 0,0 l/m 0 min 0 min 213 W/m 12,9 km/h (3 Bft) 93,62 %
18.04.2023 10:40 9,8 C 10,6 C 6,1 C 79 % 1026,7 hPa 0,0 l/m 0 min 0 min 239 W/m 25,7 km/h (4 Bft) 97,83 %
18.04.2023 10:42 9,8 C 10,6 C 6,1 C 79 % 1026,6 hPa 0,0 l/m 0 min 0 min 254 W/m 22,5 km/h (4 Bft) 97,87 %
18.04.2023 10:44 9,8 C 10,6 C 6,1 C 79 % 1026,7 hPa 0,0 l/m 0 min 0 min 269 W/m 19,3 km/h (3 Bft) 97,87 %
18.04.2023 10:46 9,8 C 11,1 C 6,1 C 79 % 1026,7 hPa 0,0 l/m 0 min 0 min 277 W/m 19,3 km/h (3 Bft) 97,87 %
18.04.2023 10:48 9,8 C 11,1 C 6,1 C 79 % 1026,7 hPa 0,0 l/m 2 min 0 min 302 W/m 16,1 km/h (3 Bft) 95,74 %
18.04.2023 10:50 9,9 C 11,7 C 6,7 C 79 % 1026,7 hPa 0,0 l/m 2 min 0 min 325 W/m 19,3 km/h (3 Bft) 95,74 %
18.04.2023 10:52 9,9 C 11,7 C 6,7 C 79 % 1026,7 hPa 0,0 l/m 2 min 0 min 308 W/m 19,3 km/h (3 Bft) 97,87 %
18.04.2023 10:54 10,1 C 11,7 C 6,7 C 80 % 1026,6 hPa 0,0 l/m 0 min 0 min 295 W/m 16,1 km/h (3 Bft) 95,65 %
18.04.2023 10:56 10,1 C 11,7 C 6,7 C 80 % 1026,7 hPa 0,0 l/m 0 min 0 min 281 W/m 22,5 km/h (4 Bft) 95,74 %
18.04.2023 10:58 10,1 C 11,7 C 6,7 C 79 % 1026,7 hPa 0,0 l/m 0 min 0 min 279 W/m 12,9 km/h (3 Bft) 95,74 %
18.04.2023 11:00 10,2 C 11,7 C 6,7 C 79 % 1026,7 hPa 0,0 l/m 0 min 0 min 267 W/m 19,3 km/h (3 Bft) 95,74 %
18.04.2023 11:02 10,2 C 11,7 C 6,7 C 79 % 1026,7 hPa 0,0 l/m 0 min 0 min 257 W/m 12,9 km/h (3 Bft) 97,87 %
18.04.2023 11:04 10,2 C 11,7 C 6,7 C 79 % 1026,6 hPa 0,0 l/m 0 min 0 min 266 W/m 25,7 km/h (4 Bft) 95,83 %
18.04.2023 11:06 10,2 C 11,1 C 6,7 C 78 % 1026,7 hPa 0,0 l/m 0 min 0 min 270 W/m 19,3 km/h (3 Bft) 97,87 %
18.04.2023 11:08 10,2 C 11,1 C 6,7 C 78 % 1026,7 hPa 0,0 l/m 0 min 0 min 251 W/m 19,3 km/h (3 Bft) 97,83 %
18.04.2023 11:10 10,3 C 11,7 C 6,7 C 79 % 1026,6 hPa 0,0 l/m 0 min 0 min 223 W/m 9,7 km/h (2 Bft) 95,74 %
18.04.2023 11:12 10,3 C 11,1 C 6,7 C 78 % 1026,6 hPa 0,0 l/m 0 min 0 min 221 W/m 12,9 km/h (3 Bft) 97,87 %
18.04.2023 11:14 10,3 C 11,1 C 6,7 C 79 % 1026,7 hPa 0,0 l/m 0 min 0 min 225 W/m 16,1 km/h (3 Bft) 97,87 %
18.04.2023 11:16 10,3 C 11,1 C 6,7 C 79 % 1026,7 hPa 0,0 l/m 0 min 0 min 224 W/m 19,3 km/h (3 Bft) 97,87 %
18.04.2023 11:18 10,3 C 11,1 C 6,7 C 79 % 1026,7 hPa 0,0 l/m 0 min 0 min 225 W/m 12,9 km/h (3 Bft) 97,87 %
18.04.2023 11:20 10,3 C 11,1 C 6,7 C 79 % 1026,7 hPa 0,0 l/m 0 min 0 min 233 W/m 22,5 km/h (4 Bft) 100,00 %
18.04.2023 11:22 10,3 C 11,1 C 6,7 C 79 % 1026,6 hPa 0,0 l/m 0 min 0 min 232 W/m 16,1 km/h (3 Bft) 100,00 %
18.04.2023 11:24 10,3 C 11,1 C 6,7 C 79 % 1026,6 hPa 0,0 l/m 0 min 0 min 240 W/m 12,9 km/h (3 Bft) 100,00 %
18.04.2023 11:26 10,3 C 11,1 C 6,7 C 78 % 1026,7 hPa 0,0 l/m 0 min 0 min 244 W/m 16,1 km/h (3 Bft) 97,87 %
18.04.2023 11:28 10,2 C 11,1 C 6,7 C 78 % 1026,7 hPa 0,0 l/m 0 min 0 min 233 W/m 22,5 km/h (4 Bft) 100,00 %
18.04.2023 11:30 10,2 C 11,1 C 6,7 C 78 % 1026,7 hPa 0,0 l/m 0 min 0 min 239 W/m 19,3 km/h (3 Bft) 97,87 %
18.04.2023 11:32 10,2 C 11,1 C 6,7 C 78 % 1026,7 hPa 0,0 l/m 0 min 0 min 253 W/m 12,9 km/h (3 Bft) 97,87 %
18.04.2023 11:34 10,3 C 11,1 C 6,7 C 79 % 1026,7 hPa 0,0 l/m 0 min 0 min 250 W/m 12,9 km/h (3 Bft) 100,00 %
18.04.2023 11:36 10,3 C 11,1 C 6,7 C 79 % 1026,7 hPa 0,0 l/m 0 min 0 min 259 W/m 16,1 km/h (3 Bft) 97,83 %
18.04.2023 11:38 10,3 C 11,7 C 6,7 C 79 % 1026,7 hPa 0,0 l/m 0 min 0 min 308 W/m 16,1 km/h (3 Bft) 100,00 %
18.04.2023 11:40 10,4 C 11,7 C 6,7 C 79 % 1026,7 hPa 0,0 l/m 0 min 0 min 299 W/m 19,3 km/h (3 Bft) 100,00 %
18.04.2023 11:42 10,4 C 11,7 C 6,7 C 79 % 1026,7 hPa 0,0 l/m 0 min 0 min 288 W/m 19,3 km/h (3 Bft) 100,00 %
18.04.2023 11:44 10,4 C 11,7 C 7,2 C 79 % 1026,7 hPa 0,0 l/m 0 min 0 min 300 W/m 19,3 km/h (3 Bft) 100,00 %
18.04.2023 11:46 10,4 C 12,2 C 7,2 C 79 % 1026,7 hPa 0,0 l/m 0 min 0 min 336 W/m 19,3 km/h (3 Bft) 97,87 %
18.04.2023 11:48 10,5 C 12,2 C 7,2 C 79 % 1026,6 hPa 0,0 l/m 0 min 0 min 305 W/m 16,1 km/h (3 Bft) 100,00 %
18.04.2023 11:50 10,5 C 12,2 C 7,2 C 79 % 1026,6 hPa 0,0 l/m 0 min 0 min 314 W/m 19,3 km/h (3 Bft) 100,00 %
18.04.2023 11:52 10,6 C 11,7 C 7,2 C 79 % 1026,7 hPa 0,0 l/m 0 min 0 min 316 W/m 16,1 km/h (3 Bft) 100,00 %
18.04.2023 11:54 10,6 C 11,7 C 7,2 C 78 % 1026,6 hPa 0,0 l/m 0 min 0 min 306 W/m 16,1 km/h (3 Bft) 100,00 %
18.04.2023 11:56 10,6 C 11,7 C 7,2 C 78 % 1026,6 hPa 0,0 l/m 0 min 0 min 315 W/m 25,7 km/h (4 Bft) 97,87 %
18.04.2023 11:58 10,6 C 11,7 C 7,2 C 78 % 1026,6 hPa 0,0 l/m 0 min 0 min 340 W/m 22,5 km/h (4 Bft) 100,00 %
18.04.2023 12:00 10,6 C 12,8 C 7,2 C 78 % 1026,6 hPa 0,0 l/m 2 min 0 min 428 W/m 12,9 km/h (3 Bft) 97,87 %
18.04.2023 12:02 10,7 C 13,9 C 7,8 C 79 % 1026,6 hPa 0,0 l/m 2 min 0 min 524 W/m 22,5 km/h (4 Bft) 97,87 %
18.04.2023 12:04 10,8 C 15,0 C 8,9 C 79 % 1026,6 hPa 0,0 l/m 2 min 0 min 591 W/m 16,1 km/h (3 Bft) 100,00 %
18.04.2023 12:07 11,1 C 18,3 C 10,6 C 79 % 1026,6 hPa 0,0 l/m 3 min 0 min 575 W/m 19,3 km/h (3 Bft) 100,00 %
18.04.2023 12:08 11,2 C 17,8 C 10,6 C 79 % 1026,6 hPa 0,0 l/m 1 min 0 min 565 W/m 12,9 km/h (3 Bft) 100,00 %
18.04.2023 12:12 11,6 C 19,4 C 11,1 C 78 % 1026,5 hPa 0,0 l/m 4 min 0 min 764 W/m 22,5 km/h (4 Bft) 100,00 %
18.04.2023 12:14 11,8 C 21,1 C 12,2 C 77 % 1026,5 hPa 0,0 l/m 2 min 0 min 901 W/m 16,1 km/h (3 Bft) 100,00 %
18.04.2023 12:16 12,0 C 21,1 C 12,2 C 77 % 1026,5 hPa 0,0 l/m 2 min 0 min 858 W/m 12,9 km/h (3 Bft) 97,87 %
18.04.2023 12:18 12,3 C 21,1 C 12,2 C 77 % 1026,5 hPa 0,0 l/m 2 min 0 min 984 W/m 16,1 km/h (3 Bft) 97,87 %
18.04.2023 12:20 12,5 C 20,0 C 11,7 C 77 % 1026,6 hPa 0,0 l/m 2 min 0 min 834 W/m 22,5 km/h (4 Bft) 97,83 %
18.04.2023 12:22 12,6 C 18,9 C 10,6 C 74 % 1026,6 hPa 0,0 l/m 2 min 0 min 517 W/m 29,0 km/h (5 Bft) 97,87 %
18.04.2023 12:24 12,5 C 18,9 C 11,1 C 74 % 1026,6 hPa 0,0 l/m 2 min 0 min 517 W/m 16,1 km/h (3 Bft) 95,74 %
18.04.2023 12:26 12,5 C 19,4 C 11,1 C 74 % 1026,5 hPa 0,0 l/m 2 min 0 min 517 W/m 12,9 km/h (3 Bft) 97,87 %
18.04.2023 12:28 12,5 C 18,3 C 10,6 C 74 % 1026,5 hPa 0,0 l/m 2 min 0 min 586 W/m 32,2 km/h (5 Bft) 97,87 %
18.04.2023 12:30 12,4 C 16,1 C 8,9 C 74 % 1026,6 hPa 0,0 l/m 2 min 0 min 467 W/m 22,5 km/h (4 Bft) 95,74 %
18.04.2023 12:32 12,2 C 15,0 C 8,9 C 74 % 1026,5 hPa 0,0 l/m 0 min 0 min 334 W/m 19,3 km/h (3 Bft) 97,87 %
18.04.2023 12:34 12,0 C 13,9 C 8,3 C 75 % 1026,5 hPa 0,0 l/m 0 min 0 min 285 W/m 16,1 km/h (3 Bft) 95,65 %
18.04.2023 12:36 11,8 C 13,3 C 7,8 C 75 % 1026,7 hPa 0,0 l/m 0 min 0 min 274 W/m 19,3 km/h (3 Bft) 97,87 %
18.04.2023 12:38 11,7 C 12,8 C 7,8 C 76 % 1026,6 hPa 0,0 l/m 0 min 0 min 233 W/m 19,3 km/h (3 Bft) 97,87 %
18.04.2023 12:40 11,6 C 12,2 C 7,8 C 76 % 1026,5 hPa 0,0 l/m 0 min 0 min 238 W/m 19,3 km/h (3 Bft) 97,87 %
18.04.2023 12:42 11,4 C 12,2 C 7,2 C 76 % 1026,5 hPa 0,0 l/m 0 min 0 min 242 W/m 12,9 km/h (3 Bft) 97,87 %
18.04.2023 12:44 11,3 C 12,2 C 7,2 C 76 % 1026,5 hPa 0,0 l/m 0 min 0 min 239 W/m 12,9 km/h (3 Bft) 95,74 %
18.04.2023 12:46 11,3 C 12,2 C 7,2 C 77 % 1026,5 hPa 0,0 l/m 0 min 0 min 243 W/m 16,1 km/h (3 Bft) 95,65 %
18.04.2023 12:48 11,2 C 12,8 C 7,2 C 77 % 1026,5 hPa 0,0 l/m 0 min 0 min 298 W/m 19,3 km/h (3 Bft) 93,62 %
18.04.2023 12:50 11,2 C 12,8 C 7,8 C 78 % 1026,5 hPa 0,0 l/m 0 min 0 min 334 W/m 19,3 km/h (3 Bft) 95,74 %
18.04.2023 12:52 11,2 C 12,8 C 7,8 C 78 % 1026,5 hPa 0,0 l/m 0 min 0 min 352 W/m 16,1 km/h (3 Bft) 97,87 %
18.04.2023 12:54 11,2 C 12,8 C 7,8 C 78 % 1026,5 hPa 0,0 l/m 0 min 0 min 317 W/m 16,1 km/h (3 Bft) 95,74 %
18.04.2023 12:56 11,1 C 12,2 C 7,8 C 77 % 1026,4 hPa 0,0 l/m 0 min 0 min 264 W/m 38,6 km/h (5 Bft) 95,74 %
18.04.2023 12:58 11,1 C 12,2 C 7,2 C 77 % 1026,4 hPa 0,0 l/m 0 min 0 min 254 W/m 19,3 km/h (3 Bft) 95,74 %
18.04.2023 13:00 11,1 C 11,7 C 7,2 C 78 % 1026,4 hPa 0,0 l/m 0 min 0 min 228 W/m 22,5 km/h (4 Bft) 95,74 %
18.04.2023 13:02 11,0 C 11,7 C 7,2 C 78 % 1026,4 hPa 0,0 l/m 0 min 0 min 226 W/m 12,9 km/h (3 Bft) 93,48 %
18.04.2023 13:04 11,0 C 11,7 C 7,2 C 78 % 1026,4 hPa 0,0 l/m 0 min 0 min 226 W/m 16,1 km/h (3 Bft) 93,88 %
18.04.2023 13:06 11,0 C 11,7 C 7,2 C 78 % 1026,4 hPa 0,0 l/m 0 min 0 min 243 W/m 19,3 km/h (3 Bft) 93,22 %
18.04.2023 13:08 11,0 C 11,7 C 7,2 C 78 % 1026,4 hPa 0,0 l/m 0 min 0 min 252 W/m 16,1 km/h (3 Bft) 94,29 %
18.04.2023 13:10 10,9 C 12,2 C 7,2 C 78 % 1026,4 hPa 0,0 l/m 0 min 0 min 243 W/m 16,1 km/h (3 Bft) 93,62 %
18.04.2023 13:12 11,0 C 12,2 C 7,2 C 79 % 1026,4 hPa 0,0 l/m 0 min 0 min 251 W/m 19,3 km/h (3 Bft) 91,49 %
18.04.2023 13:14 11,1 C 12,2 C 7,8 C 80 % 1026,3 hPa 0,0 l/m 0 min 0 min 262 W/m 16,1 km/h (3 Bft) 91,30 %
18.04.2023 13:16 11,1 C 12,2 C 7,8 C 79 % 1026,4 hPa 0,0 l/m 0 min 0 min 248 W/m 19,3 km/h (3 Bft) 89,36 %
18.04.2023 13:18 11,1 C 12,2 C 7,8 C 79 % 1026,4 hPa 0,0 l/m 0 min 0 min 230 W/m 12,9 km/h (3 Bft) 95,74 %
18.04.2023 13:20 11,1 C 12,2 C 7,8 C 79 % 1026,4 hPa 0,0 l/m 0 min 0 min 206 W/m 22,5 km/h (4 Bft) 95,74 %
18.04.2023 13:22 11,1 C 12,2 C 7,8 C 79 % 1026,4 hPa 0,0 l/m 0 min 0 min 208 W/m 22,5 km/h (4 Bft) 97,87 %
18.04.2023 13:24 11,1 C 11,7 C 7,2 C 79 % 1026,4 hPa 0,0 l/m 0 min 0 min 206 W/m 12,9 km/h (3 Bft) 97,87 %
18.04.2023 13:26 11,1 C 11,7 C 7,2 C 79 % 1026,3 hPa 0,0 l/m 0 min 0 min 201 W/m 16,1 km/h (3 Bft) 97,87 %
18.04.2023 13:28 11,0 C 11,7 C 7,2 C 79 % 1026,3 hPa 0,0 l/m 0 min 0 min 198 W/m 22,5 km/h (4 Bft) 95,65 %
18.04.2023 13:30 10,9 C 11,7 C 7,2 C 79 % 1026,3 hPa 0,0 l/m 0 min 0 min 206 W/m 16,1 km/h (3 Bft) 96,36 %
18.04.2023 13:32 10,9 C 11,7 C 7,2 C 79 % 1026,3 hPa 0,0 l/m 0 min 0 min 211 W/m 29,0 km/h (5 Bft) 97,83 %
18.04.2023 13:34 10,9 C 11,7 C 7,2 C 79 % 1026,2 hPa 0,0 l/m 0 min 0 min 218 W/m 19,3 km/h (3 Bft) 97,87 %
18.04.2023 13:36 10,9 C 12,2 C 7,8 C 79 % 1026,3 hPa 0,0 l/m 0 min 0 min 260 W/m 16,1 km/h (3 Bft) 97,87 %
18.04.2023 13:38 11,0 C 12,2 C 7,8 C 79 % 1026,2 hPa 0,0 l/m 0 min 0 min 313 W/m 19,3 km/h (3 Bft) 95,74 %
18.04.2023 13:40 11,1 C 13,9 C 8,3 C 79 % 1026,2 hPa 0,0 l/m 0 min 0 min 321 W/m 16,1 km/h (3 Bft) 97,87 %
18.04.2023 13:42 11,3 C 16,7 C 8,9 C 80 % 1026,2 hPa 0,0 l/m 2 min 0 min 794 W/m 12,9 km/h (3 Bft) 97,87 %
18.04.2023 13:44 11,6 C 17,2 C 9,4 C 80 % 1026,2 hPa 0,0 l/m 2 min 0 min 1030 W/m 19,3 km/h (3 Bft) 97,87 %
18.04.2023 13:46 11,8 C 17,8 C 9,4 C 79 % 1026,2 hPa 0,0 l/m 2 min 0 min 1030 W/m 22,5 km/h (4 Bft) 97,83 %
18.04.2023 13:48 12,0 C 16,7 C 9,4 C 79 % 1026,2 hPa 0,0 l/m 2 min 0 min 869 W/m 19,3 km/h (3 Bft) 95,74 %
18.04.2023 13:50 12,1 C 15,6 C 8,9 C 77 % 1026,2 hPa 0,0 l/m 2 min 0 min 403 W/m 19,3 km/h (3 Bft) 100,00 %
18.04.2023 13:52 12,2 C 15,0 C 8,9 C 77 % 1026,2 hPa 0,0 l/m 0 min 0 min 327 W/m 12,9 km/h (3 Bft) 100,00 %
18.04.2023 13:54 12,2 C 13,9 C 8,9 C 76 % 1026,2 hPa 0,0 l/m 0 min 0 min 277 W/m 19,3 km/h (3 Bft) 100,00 %
18.04.2023 13:56 12,2 C 13,9 C 8,3 C 76 % 1026,2 hPa 0,0 l/m 0 min 0 min 282 W/m 19,3 km/h (3 Bft) 100,00 %
18.04.2023 13:58 12,1 C 13,3 C 8,3 C 76 % 1026,2 hPa 0,0 l/m 0 min 0 min 304 W/m 22,5 km/h (4 Bft) 100,00 %
18.04.2023 14:00 12,1 C 13,3 C 8,3 C 76 % 1026,2 hPa 0,0 l/m 0 min 0 min 276 W/m 16,1 km/h (3 Bft) 97,87 %
18.04.2023 14:02 12,1 C 13,3 C 8,3 C 77 % 1026,2 hPa 0,0 l/m 0 min 0 min 284 W/m 19,3 km/h (3 Bft) 95,74 %
18.04.2023 14:04 12,1 C 13,3 C 8,3 C 76 % 1026,2 hPa 0,0 l/m 0 min 0 min 292 W/m 22,5 km/h (4 Bft) 100,00 %
18.04.2023 14:06 12,1 C 13,3 C 8,3 C 76 % 1026,1 hPa 0,0 l/m 0 min 0 min 324 W/m 19,3 km/h (3 Bft) 97,87 %
18.04.2023 14:08 12,1 C 13,3 C 8,9 C 76 % 1026,2 hPa 0,0 l/m 0 min 0 min 315 W/m 19,3 km/h (3 Bft) 100,00 %
18.04.2023 14:10 12,2 C 13,9 C 8,9 C 76 % 1026,1 hPa 0,0 l/m 0 min 0 min 292 W/m 9,7 km/h (2 Bft) 100,00 %
18.04.2023 14:12 12,2 C 13,3 C 8,9 C 77 % 1026,2 hPa 0,0 l/m 0 min 0 min 269 W/m 19,3 km/h (3 Bft) 100,00 %
18.04.2023 14:14 12,2 C 13,3 C 8,9 C 77 % 1026,2 hPa 0,0 l/m 0 min 0 min 252 W/m 19,3 km/h (3 Bft) 97,87 %
18.04.2023 14:16 12,2 C 13,3 C 8,9 C 76 % 1026,1 hPa 0,0 l/m 0 min 0 min 221 W/m 16,1 km/h (3 Bft) 97,87 %
18.04.2023 14:18 12,2 C 13,3 C 8,3 C 77 % 1026,1 hPa 0,0 l/m 0 min 0 min 184 W/m 12,9 km/h (3 Bft) 100,00 %
18.04.2023 14:20 12,2 C 12,8 C 8,3 C 77 % 1026,1 hPa 0,0 l/m 0 min 0 min 191 W/m 16,1 km/h (3 Bft) 97,87 %
18.04.2023 14:22 12,2 C 12,8 C 8,3 C 76 % 1026,0 hPa 0,0 l/m 0 min 0 min 188 W/m 19,3 km/h (3 Bft) 100,00 %
18.04.2023 14:24 12,1 C 12,8 C 8,3 C 76 % 1026,1 hPa 0,0 l/m 0 min 0 min 182 W/m 22,5 km/h (4 Bft) 100,00 %
18.04.2023 14:26 12,1 C 12,8 C 8,3 C 76 % 1026,1 hPa 0,0 l/m 0 min 0 min 191 W/m 16,1 km/h (3 Bft) 100,00 %
18.04.2023 14:28 12,1 C 12,8 C 8,3 C 76 % 1026,1 hPa 0,0 l/m 0 min 0 min 185 W/m 22,5 km/h (4 Bft) 97,87 %
18.04.2023 14:30 12,1 C 12,8 C 8,3 C 77 % 1026,0 hPa 0,0 l/m 0 min 0 min 186 W/m 16,1 km/h (3 Bft) 100,00 %
18.04.2023 14:32 12,1 C 12,8 C 8,3 C 77 % 1026,0 hPa 0,0 l/m 0 min 0 min 180 W/m 12,9 km/h (3 Bft) 100,00 %
18.04.2023 14:34 12,2 C 12,8 C 8,3 C 77 % 1026,0 hPa 0,0 l/m 0 min 0 min 183 W/m 25,7 km/h (4 Bft) 100,00 %
18.04.2023 14:36 12,2 C 12,8 C 8,3 C 77 % 1026,0 hPa 0,0 l/m 0 min 0 min 184 W/m 9,7 km/h (2 Bft) 54,55 %
18.04.2023 14:38 12,2 C 12,8 C 8,3 C 77 % 1026,0 hPa 0,0 l/m 0 min 0 min 168 W/m 12,9 km/h (3 Bft) 100,00 %
18.04.2023 14:40 12,2 C 12,8 C 8,3 C 77 % 1026,0 hPa 0,0 l/m 0 min 0 min 152 W/m 19,3 km/h (3 Bft) 100,00 %
18.04.2023 14:42 12,1 C 12,8 C 8,3 C 76 % 1026,0 hPa 0,0 l/m 0 min 0 min 155 W/m 19,3 km/h (3 Bft) 97,87 %
18.04.2023 14:44 12,1 C 12,8 C 8,3 C 76 % 1026,0 hPa 0,0 l/m 0 min 0 min 154 W/m 22,5 km/h (4 Bft) 97,87 %
18.04.2023 14:46 12,1 C 12,8 C 8,3 C 76 % 1026,0 hPa 0,0 l/m 0 min 0 min 145 W/m 16,1 km/h (3 Bft) 97,87 %
18.04.2023 14:48 12,1 C 12,2 C 7,8 C 76 % 1026,0 hPa 0,0 l/m 0 min 0 min 141 W/m 19,3 km/h (3 Bft) 97,87 %
18.04.2023 14:50 12,1 C 12,2 C 7,8 C 76 % 1026,0 hPa 0,0 l/m 0 min 0 min 149 W/m 22,5 km/h (4 Bft) 97,87 %
18.04.2023 14:52 12,1 C 12,2 C 7,8 C 76 % 1026,0 hPa 0,0 l/m 0 min 0 min 174 W/m 19,3 km/h (3 Bft) 97,83 %
18.04.2023 14:54 12,1 C 12,2 C 7,8 C 77 % 1026,0 hPa 0,0 l/m 0 min 0 min 168 W/m 16,1 km/h (3 Bft) 97,87 %
18.04.2023 14:56 12,1 C 12,2 C 8,3 C 77 % 1025,9 hPa 0,0 l/m 0 min 0 min 175 W/m 12,9 km/h (3 Bft) 97,87 %
18.04.2023 14:58 12,1 C 12,8 C 8,3 C 77 % 1025,9 hPa 0,0 l/m 0 min 0 min 216 W/m 22,5 km/h (4 Bft) 97,87 %
18.04.2023 15:00 12,1 C 15,0 C 8,3 C 77 % 1025,9 hPa 0,0 l/m 0 min 0 min 264 W/m 16,1 km/h (3 Bft) 95,74 %
18.04.2023 15:02 12,3 C 18,3 C 8,9 C 78 % 1025,9 hPa 0,0 l/m 2 min 0 min 798 W/m 19,3 km/h (3 Bft) 97,87 %
18.04.2023 15:04 12,6 C 19,4 C 9,4 C 78 % 1025,9 hPa 0,0 l/m 2 min 0 min 852 W/m 25,7 km/h (4 Bft) 97,87 %
18.04.2023 15:06 13,1 C 21,1 C 10,0 C 78 % 1025,9 hPa 0,0 l/m 2 min 0 min 855 W/m 16,1 km/h (3 Bft) 97,83 %
18.04.2023 15:08 13,3 C 21,7 C 10,6 C 77 % 1025,9 hPa 0,0 l/m 2 min 0 min 839 W/m 16,1 km/h (3 Bft) 95,74 %
18.04.2023 15:10 13,6 C 21,7 C 10,6 C 75 % 1026,0 hPa 0,0 l/m 2 min 0 min 839 W/m 19,3 km/h (3 Bft) 95,74 %
18.04.2023 15:12 13,8 C 22,2 C 10,6 C 74 % 1025,9 hPa 0,0 l/m 2 min 0 min 836 W/m 16,1 km/h (3 Bft) 95,74 %
18.04.2023 15:14 14,1 C 22,8 C 10,6 C 73 % 1026,0 hPa 0,0 l/m 2 min 0 min 864 W/m 25,7 km/h (4 Bft) 100,00 %
18.04.2023 15:16 14,3 C 22,8 C 11,1 C 73 % 1025,9 hPa 0,0 l/m 2 min 0 min 873 W/m 12,9 km/h (3 Bft) 97,87 %
18.04.2023 15:18 14,5 C 22,8 C 11,1 C 73 % 1025,9 hPa 0,0 l/m 2 min 0 min 880 W/m 22,5 km/h (4 Bft) 100,00 %
18.04.2023 15:20 14,7 C 23,3 C 11,1 C 72 % 1025,9 hPa 0,0 l/m 2 min 0 min 899 W/m 22,5 km/h (4 Bft) 100,00 %
18.04.2023 15:22 14,9 C 23,9 C 11,7 C 72 % 1025,9 hPa 0,0 l/m 2 min 0 min 900 W/m 16,1 km/h (3 Bft) 95,74 %
18.04.2023 15:24 15,2 C 22,8 C 11,7 C 72 % 1025,9 hPa 0,0 l/m 2 min 0 min 882 W/m 19,3 km/h (3 Bft) 100,00 %
18.04.2023 15:26 15,3 C 21,7 C 11,7 C 70 % 1025,8 hPa 0,0 l/m 2 min 0 min 845 W/m 19,3 km/h (3 Bft) 100,00 %
18.04.2023 15:28 15,4 C 19,4 C 11,1 C 69 % 1025,9 hPa 0,0 l/m 2 min 0 min 650 W/m 25,7 km/h (4 Bft) 100,00 %
18.04.2023 15:30 15,2 C 16,7 C 10,6 C 68 % 1025,9 hPa 0,0 l/m 0 min 0 min 197 W/m 19,3 km/h (3 Bft) 100,00 %
18.04.2023 15:32 14,9 C 15,0 C 10,0 C 68 % 1025,8 hPa 0,0 l/m 0 min 0 min 180 W/m 38,6 km/h (5 Bft) 97,87 %
18.04.2023 15:34 14,6 C 14,4 C 9,4 C 68 % 1025,8 hPa 0,0 l/m 0 min 0 min 164 W/m 25,7 km/h (4 Bft) 100,00 %
18.04.2023 15:36 14,3 C 13,9 C 9,4 C 69 % 1025,9 hPa 0,0 l/m 0 min 0 min 163 W/m 22,5 km/h (4 Bft) 100,00 %
18.04.2023 15:38 14,1 C 13,3 C 9,4 C 70 % 1025,8 hPa 0,0 l/m 0 min 0 min 185 W/m 35,4 km/h (5 Bft) 100,00 %
18.04.2023 15:40 13,9 C 13,9 C 9,4 C 71 % 1025,9 hPa 0,0 l/m 0 min 0 min 200 W/m 16,1 km/h (3 Bft) 97,87 %
18.04.2023 15:42 13,8 C 13,9 C 9,4 C 71 % 1025,8 hPa 0,0 l/m 0 min 0 min 215 W/m 22,5 km/h (4 Bft) 97,87 %
18.04.2023 15:44 13,7 C 13,9 C 9,4 C 72 % 1025,8 hPa 0,0 l/m 0 min 0 min 234 W/m 22,5 km/h (4 Bft) 97,87 %
18.04.2023 15:46 13,6 C 14,4 C 9,4 C 72 % 1025,8 hPa 0,0 l/m 0 min 0 min 276 W/m 19,3 km/h (3 Bft) 97,83 %
18.04.2023 15:48 13,6 C 16,1 C 10,0 C 73 % 1025,8 hPa 0,0 l/m 0 min 0 min 312 W/m 16,1 km/h (3 Bft) 97,87 %
18.04.2023 15:50 13,7 C 18,3 C 10,6 C 73 % 1025,8 hPa 0,0 l/m 2 min 0 min 804 W/m 25,7 km/h (4 Bft) 93,62 %
18.04.2023 15:52 13,9 C 20,0 C 11,1 C 74 % 1025,8 hPa 0,0 l/m 2 min 0 min 805 W/m 19,3 km/h (3 Bft) 93,62 %
18.04.2023 15:54 14,2 C 21,1 C 11,1 C 73 % 1025,7 hPa 0,0 l/m 2 min 0 min 790 W/m 16,1 km/h (3 Bft) 95,74 %
18.04.2023 15:56 14,3 C 20,6 C 11,7 C 72 % 1025,7 hPa 0,0 l/m 2 min 0 min 756 W/m 25,7 km/h (4 Bft) 95,74 %
18.04.2023 15:58 14,6 C 20,0 C 11,7 C 72 % 1025,7 hPa 0,0 l/m 2 min 0 min 685 W/m 16,1 km/h (3 Bft) 95,74 %
18.04.2023 16:00 14,8 C 20,6 C 11,7 C 71 % 1025,7 hPa 0,0 l/m 2 min 0 min 653 W/m 19,3 km/h (3 Bft) 95,65 %
18.04.2023 16:02 14,9 C 19,4 C 11,1 C 70 % 1025,8 hPa 0,0 l/m 2 min 0 min 586 W/m 22,5 km/h (4 Bft) 95,74 %
18.04.2023 16:04 14,9 C 18,3 C 11,1 C 69 % 1025,8 hPa 0,0 l/m 0 min 0 min 283 W/m 19,3 km/h (3 Bft) 95,74 %
18.04.2023 16:06 14,9 C 18,3 C 11,1 C 69 % 1025,7 hPa 0,0 l/m 0 min 0 min 230 W/m 32,2 km/h (5 Bft) 93,62 %
18.04.2023 16:08 14,9 C 18,3 C 10,6 C 69 % 1025,7 hPa 0,0 l/m 2 min 0 min 409 W/m 22,5 km/h (4 Bft) 93,75 %
18.04.2023 16:10 14,8 C 18,9 C 10,6 C 69 % 1025,7 hPa 0,0 l/m 2 min 0 min 654 W/m 19,3 km/h (3 Bft) 94,29 %
18.04.2023 16:12 14,9 C 19,4 C 11,1 C 70 % 1025,7 hPa 0,0 l/m 2 min 0 min 691 W/m 12,9 km/h (3 Bft) 95,74 %
18.04.2023 16:14 15,0 C 19,4 C 11,1 C 70 % 1025,6 hPa 0,0 l/m 2 min 0 min 674 W/m 22,5 km/h (4 Bft) 93,88 %
18.04.2023 16:16 15,0 C 19,4 C 11,1 C 69 % 1025,6 hPa 0,0 l/m 2 min 0 min 676 W/m 19,3 km/h (3 Bft) 93,48 %
18.04.2023 16:18 15,1 C 20,0 C 11,1 C 69 % 1025,6 hPa 0,0 l/m 2 min 0 min 682 W/m 25,7 km/h (4 Bft) 95,74 %
18.04.2023 16:20 15,1 C 18,9 C 11,1 C 69 % 1025,6 hPa 0,0 l/m 2 min 0 min 579 W/m 19,3 km/h (3 Bft) 93,62 %
18.04.2023 16:22 15,1 C 17,8 C 11,1 C 69 % 1025,5 hPa 0,0 l/m 2 min 0 min 317 W/m 19,3 km/h (3 Bft) 93,62 %
18.04.2023 16:24 15,0 C 17,2 C 10,6 C 68 % 1025,5 hPa 0,0 l/m 2 min 0 min 497 W/m 22,5 km/h (4 Bft) 95,74 %
18.04.2023 16:26 14,9 C 17,8 C 10,6 C 68 % 1025,5 hPa 0,0 l/m 2 min 0 min 496 W/m 25,7 km/h (4 Bft) 93,62 %
18.04.2023 16:28 14,8 C 17,2 C 10,6 C 68 % 1025,5 hPa 0,0 l/m 2 min 0 min 527 W/m 29,0 km/h (5 Bft) 93,62 %
18.04.2023 16:30 14,8 C 18,3 C 11,1 C 69 % 1025,5 hPa 0,0 l/m 2 min 0 min 571 W/m 19,3 km/h (3 Bft) 95,65 %
18.04.2023 16:32 14,8 C 18,9 C 11,1 C 69 % 1025,5 hPa 0,0 l/m 2 min 0 min 638 W/m 19,3 km/h (3 Bft) 95,74 %
18.04.2023 16:34 14,8 C 18,3 C 11,1 C 68 % 1025,5 hPa 0,0 l/m 2 min 0 min 630 W/m 29,0 km/h (5 Bft) 93,62 %
18.04.2023 16:36 14,8 C 19,4 C 11,1 C 69 % 1025,5 hPa 0,0 l/m 2 min 0 min 626 W/m 12,9 km/h (3 Bft) 97,87 %
18.04.2023 16:38 14,9 C 20,0 C 11,7 C 69 % 1025,5 hPa 0,0 l/m 2 min 0 min 632 W/m 16,1 km/h (3 Bft) 95,74 %
18.04.2023 16:40 15,1 C 20,6 C 11,7 C 69 % 1025,6 hPa 0,0 l/m 2 min 0 min 637 W/m 12,9 km/h (3 Bft) 100,00 %
18.04.2023 16:42 15,2 C 20,6 C 11,7 C 69 % 1025,6 hPa 0,0 l/m 2 min 0 min 630 W/m 19,3 km/h (3 Bft) 100,00 %
18.04.2023 16:44 15,3 C 20,6 C 12,2 C 68 % 1025,5 hPa 0,0 l/m 2 min 0 min 615 W/m 19,3 km/h (3 Bft) 100,00 %
18.04.2023 16:46 15,4 C 20,6 C 12,2 C 68 % 1025,5 hPa 0,0 l/m 2 min 0 min 603 W/m 19,3 km/h (3 Bft) 100,00 %
18.04.2023 16:48 15,5 C 20,6 C 12,2 C 68 % 1025,5 hPa 0,0 l/m 2 min 0 min 594 W/m 22,5 km/h (4 Bft) 100,00 %
18.04.2023 16:50 15,4 C 18,9 C 11,7 C 67 % 1025,5 hPa 0,0 l/m 2 min 0 min 506 W/m 35,4 km/h (5 Bft) 100,00 %
18.04.2023 16:52 15,4 C 18,3 C 11,7 C 66 % 1025,5 hPa 0,0 l/m 2 min 0 min 411 W/m 19,3 km/h (3 Bft) 100,00 %
18.04.2023 16:54 15,3 C 19,4 C 11,7 C 66 % 1025,4 hPa 0,0 l/m 2 min 0 min 534 W/m 22,5 km/h (4 Bft) 97,87 %
18.04.2023 16:56 15,3 C 19,4 C 11,7 C 67 % 1025,4 hPa 0,0 l/m 2 min 0 min 623 W/m 19,3 km/h (3 Bft) 97,83 %
18.04.2023 16:58 15,3 C 20,0 C 12,2 C 68 % 1025,5 hPa 0,0 l/m 2 min 0 min 605 W/m 16,1 km/h (3 Bft) 97,87 %
18.04.2023 17:00 15,4 C 20,0 C 12,2 C 68 % 1025,4 hPa 0,0 l/m 2 min 0 min 569 W/m 22,5 km/h (4 Bft) 97,87 %
18.04.2023 17:02 15,4 C 19,4 C 12,2 C 67 % 1025,4 hPa 0,0 l/m 2 min 0 min 518 W/m 25,7 km/h (4 Bft) 95,74 %
18.04.2023 17:04 15,4 C 18,9 C 11,7 C 67 % 1025,4 hPa 0,0 l/m 2 min 0 min 497 W/m 25,7 km/h (4 Bft) 97,62 %
18.04.2023 17:06 15,4 C 18,9 C 11,7 C 67 % 1025,4 hPa 0,0 l/m 2 min 0 min 545 W/m 29,0 km/h (5 Bft) 96,55 %
18.04.2023 17:08 15,4 C 18,9 C 11,7 C 66 % 1025,4 hPa 0,0 l/m 2 min 0 min 519 W/m 22,5 km/h (4 Bft) 97,14 %
18.04.2023 17:10 15,4 C 18,3 C 11,7 C 66 % 1025,4 hPa 0,0 l/m 2 min 0 min 478 W/m 22,5 km/h (4 Bft) 95,74 %
18.04.2023 17:12 15,3 C 18,3 C 11,7 C 67 % 1025,4 hPa 0,0 l/m 2 min 0 min 488 W/m 29,0 km/h (5 Bft) 97,87 %
18.04.2023 17:14 15,3 C 18,9 C 11,7 C 67 % 1025,4 hPa 0,0 l/m 2 min 0 min 493 W/m 22,5 km/h (4 Bft) 97,87 %
18.04.2023 17:16 15,3 C 18,9 C 11,7 C 67 % 1025,4 hPa 0,0 l/m 2 min 0 min 490 W/m 19,3 km/h (3 Bft) 97,87 %
18.04.2023 17:18 15,3 C 19,4 C 11,7 C 67 % 1025,4 hPa 0,0 l/m 2 min 0 min 487 W/m 22,5 km/h (4 Bft) 97,87 %
18.04.2023 17:20 15,3 C 19,4 C 12,2 C 68 % 1025,4 hPa 0,0 l/m 2 min 0 min 479 W/m 12,9 km/h (3 Bft) 97,83 %
18.04.2023 17:22 15,4 C 18,9 C 11,7 C 67 % 1025,3 hPa 0,0 l/m 2 min 0 min 477 W/m 35,4 km/h (5 Bft) 95,74 %
18.04.2023 17:24 15,4 C 19,4 C 11,7 C 67 % 1025,4 hPa 0,0 l/m 2 min 0 min 451 W/m 16,1 km/h (3 Bft) 97,87 %
18.04.2023 17:26 15,4 C 19,4 C 12,2 C 68 % 1025,3 hPa 0,0 l/m 2 min 0 min 449 W/m 19,3 km/h (3 Bft) 97,87 %
18.04.2023 17:28 15,5 C 19,4 C 12,2 C 68 % 1025,4 hPa 0,0 l/m 2 min 0 min 436 W/m 19,3 km/h (3 Bft) 95,74 %
18.04.2023 17:30 15,6 C 19,4 C 12,2 C 67 % 1025,3 hPa 0,0 l/m 2 min 0 min 432 W/m 19,3 km/h (3 Bft) 97,87 %
18.04.2023 17:32 15,6 C 19,4 C 12,2 C 67 % 1025,2 hPa 0,0 l/m 2 min 0 min 436 W/m 25,7 km/h (4 Bft) 97,87 %
18.04.2023 17:34 15,5 C 20,0 C 12,2 C 67 % 1025,2 hPa 0,0 l/m 2 min 0 min 432 W/m 16,1 km/h (3 Bft) 97,83 %
18.04.2023 17:36 15,5 C 20,0 C 12,2 C 67 % 1025,2 hPa 0,0 l/m 2 min 0 min 429 W/m 16,1 km/h (3 Bft) 97,87 %
18.04.2023 17:38 15,5 C 20,0 C 12,2 C 67 % 1025,2 hPa 0,0 l/m 2 min 0 min 432 W/m 19,3 km/h (3 Bft) 95,74 %
18.04.2023 17:40 15,5 C 20,0 C 12,2 C 67 % 1025,1 hPa 0,0 l/m 2 min 0 min 429 W/m 22,5 km/h (4 Bft) 100,00 %
18.04.2023 17:42 15,4 C 20,0 C 12,8 C 67 % 1025,2 hPa 0,0 l/m 2 min 0 min 423 W/m 22,5 km/h (4 Bft) 100,00 %
18.04.2023 17:44 15,4 C 20,0 C 12,2 C 67 % 1025,2 hPa 0,0 l/m 2 min 0 min 415 W/m 19,3 km/h (3 Bft) 97,87 %
18.04.2023 17:46 15,4 C 19,4 C 12,2 C 66 % 1025,2 hPa 0,0 l/m 2 min 0 min 389 W/m 19,3 km/h (3 Bft) 100,00 %
18.04.2023 17:48 15,4 C 18,9 C 12,2 C 66 % 1025,2 hPa 0,0 l/m 2 min 0 min 388 W/m 25,7 km/h (4 Bft) 100,00 %
18.04.2023 17:50 15,3 C 18,9 C 12,2 C 66 % 1025,3 hPa 0,0 l/m 2 min 0 min 379 W/m 25,7 km/h (4 Bft) 100,00 %
18.04.2023 17:52 15,3 C 19,4 C 12,2 C 67 % 1025,2 hPa 0,0 l/m 2 min 0 min 383 W/m 22,5 km/h (4 Bft) 100,00 %
18.04.2023 17:54 15,3 C 19,4 C 12,2 C 67 % 1025,2 hPa 0,0 l/m 2 min 0 min 384 W/m 16,1 km/h (3 Bft) 100,00 %
18.04.2023 17:56 15,3 C 20,0 C 12,2 C 67 % 1025,2 hPa 0,0 l/m 2 min 0 min 386 W/m 19,3 km/h (3 Bft) 100,00 %
18.04.2023 17:58 15,3 C 19,4 C 12,2 C 67 % 1025,3 hPa 0,0 l/m 2 min 0 min 377 W/m 19,3 km/h (3 Bft) 100,00 %
18.04.2023 18:00 15,3 C 20,0 C 12,2 C 67 % 1025,2 hPa 0,0 l/m 2 min 0 min 373 W/m 19,3 km/h (3 Bft) 100,00 %
18.04.2023 18:02 15,4 C 19,4 C 12,2 C 67 % 1025,2 hPa 0,0 l/m 2 min 0 min 342 W/m 12,9 km/h (3 Bft) 100,00 %
18.04.2023 18:04 15,4 C 19,4 C 12,2 C 67 % 1025,2 hPa 0,0 l/m 2 min 0 min 332 W/m 25,7 km/h (4 Bft) 100,00 %
18.04.2023 18:07 15,3 C 18,3 C 11,7 C 66 % 1025,3 hPa 0,0 l/m 3 min 0 min 321 W/m 32,2 km/h (5 Bft) 98,57 %
18.04.2023 18:08 15,3 C 18,3 C 11,7 C 67 % 1025,3 hPa 0,0 l/m 1 min 0 min 304 W/m 19,3 km/h (3 Bft) 95,83 %
18.04.2023 18:12 15,2 C 18,3 C 11,7 C 67 % 1025,2 hPa 0,0 l/m 4 min 0 min 293 W/m 16,1 km/h (3 Bft) 100,00 %
18.04.2023 18:14 15,2 C 18,9 C 11,7 C 68 % 1025,2 hPa 0,0 l/m 2 min 0 min 296 W/m 22,5 km/h (4 Bft) 100,00 %
18.04.2023 18:16 15,2 C 18,9 C 11,7 C 68 % 1025,2 hPa 0,0 l/m 2 min 0 min 294 W/m 25,7 km/h (4 Bft) 97,87 %
18.04.2023 18:18 15,2 C 18,9 C 11,7 C 68 % 1025,2 hPa 0,0 l/m 2 min 0 min 274 W/m 19,3 km/h (3 Bft) 100,00 %
18.04.2023 18:20 15,2 C 18,3 C 11,7 C 68 % 1025,2 hPa 0,0 l/m 2 min 0 min 262 W/m 16,1 km/h (3 Bft) 100,00 %
18.04.2023 18:22 15,1 C 18,3 C 11,7 C 67 % 1025,2 hPa 0,0 l/m 2 min 0 min 267 W/m 19,3 km/h (3 Bft) 100,00 %
18.04.2023 18:24 15,1 C 18,9 C 11,7 C 68 % 1025,2 hPa 0,0 l/m 2 min 0 min 269 W/m 22,5 km/h (4 Bft) 97,87 %
18.04.2023 18:26 15,0 C 18,3 C 11,7 C 68 % 1025,2 hPa 0,0 l/m 2 min 0 min 269 W/m 16,1 km/h (3 Bft) 100,00 %
18.04.2023 18:28 14,9 C 18,3 C 11,7 C 68 % 1025,2 hPa 0,0 l/m 2 min 0 min 257 W/m 29,0 km/h (5 Bft) 97,87 %
18.04.2023 18:30 14,9 C 18,3 C 11,7 C 68 % 1025,2 hPa 0,0 l/m 2 min 0 min 263 W/m 22,5 km/h (4 Bft) 100,00 %
18.04.2023 18:32 14,9 C 18,3 C 11,7 C 68 % 1025,2 hPa 0,0 l/m 2 min 0 min 251 W/m 22,5 km/h (4 Bft) 100,00 %
18.04.2023 18:34 14,9 C 18,9 C 11,7 C 68 % 1025,2 hPa 0,0 l/m 2 min 0 min 252 W/m 12,9 km/h (3 Bft) 100,00 %
18.04.2023 18:36 14,8 C 17,8 C 11,7 C 69 % 1025,2 hPa 0,0 l/m 2 min 0 min 245 W/m 19,3 km/h (3 Bft) 97,87 %
18.04.2023 18:38 14,7 C 16,7 C 11,1 C 69 % 1025,2 hPa 0,0 l/m 2 min 0 min 191 W/m 12,9 km/h (3 Bft) 97,83 %
18.04.2023 18:40 14,7 C 16,1 C 11,1 C 69 % 1025,2 hPa 0,0 l/m 2 min 0 min 209 W/m 12,9 km/h (3 Bft) 100,00 %
18.04.2023 18:42 14,6 C 15,6 C 10,6 C 70 % 1025,2 hPa 0,0 l/m 2 min 0 min 230 W/m 9,7 km/h (2 Bft) 95,74 %
18.04.2023 18:44 14,6 C 15,6 C 10,6 C 69 % 1025,3 hPa 0,0 l/m 2 min 0 min 223 W/m 25,7 km/h (4 Bft) 95,74 %
18.04.2023 18:46 14,6 C 15,0 C 10,6 C 69 % 1025,2 hPa 0,0 l/m 2 min 0 min 151 W/m 9,7 km/h (2 Bft) 91,49 %
18.04.2023 18:48 14,5 C 14,4 C 10,6 C 69 % 1025,3 hPa 0,0 l/m 0 min 0 min 80 W/m 9,7 km/h (2 Bft) 95,74 %
18.04.2023 18:50 14,4 C 14,4 C 10,0 C 70 % 1025,2 hPa 0,0 l/m 0 min 0 min 69 W/m 19,3 km/h (3 Bft) 95,74 %
18.04.2023 18:52 14,3 C 14,4 C 10,6 C 70 % 1025,3 hPa 0,0 l/m 0 min 0 min 66 W/m 12,9 km/h (3 Bft) 93,62 %
18.04.2023 18:54 14,3 C 13,9 C 10,0 C 70 % 1025,2 hPa 0,0 l/m 0 min 0 min 67 W/m 22,5 km/h (4 Bft) 95,65 %
18.04.2023 18:56 14,3 C 13,9 C 10,0 C 70 % 1025,2 hPa 0,0 l/m 0 min 0 min 67 W/m 25,7 km/h (4 Bft) 93,62 %
18.04.2023 18:58 14,3 C 13,9 C 10,0 C 70 % 1025,3 hPa 0,0 l/m 0 min 0 min 65 W/m 16,1 km/h (3 Bft) 95,74 %
18.04.2023 19:00 14,2 C 13,9 C 10,0 C 70 % 1025,3 hPa 0,0 l/m 0 min 0 min 63 W/m 22,5 km/h (4 Bft) 95,74 %
18.04.2023 19:02 14,1 C 13,9 C 10,0 C 70 % 1025,2 hPa 0,0 l/m 0 min 0 min 63 W/m 19,3 km/h (3 Bft) 95,74 %
18.04.2023 19:04 14,1 C 13,9 C 10,0 C 70 % 1025,3 hPa 0,0 l/m 0 min 0 min 63 W/m 16,1 km/h (3 Bft) 93,75 %
18.04.2023 19:06 14,0 C 13,9 C 10,0 C 71 % 1025,3 hPa 0,0 l/m 0 min 0 min 63 W/m 12,9 km/h (3 Bft) 96,55 %
18.04.2023 19:08 13,9 C 13,9 C 9,4 C 71 % 1025,3 hPa 0,0 l/m 0 min 0 min 63 W/m 12,9 km/h (3 Bft) 94,29 %
18.04.2023 19:10 13,9 C 13,9 C 9,4 C 71 % 1025,4 hPa 0,0 l/m 0 min 0 min 62 W/m 16,1 km/h (3 Bft) 95,74 %
18.04.2023 19:12 13,8 C 13,3 C 9,4 C 71 % 1025,4 hPa 0,0 l/m 0 min 0 min 62 W/m 9,7 km/h (2 Bft) 95,74 %
18.04.2023 19:14 13,8 C 13,3 C 9,4 C 71 % 1025,4 hPa 0,0 l/m 0 min 0 min 61 W/m 16,1 km/h (3 Bft) 91,49 %
18.04.2023 19:16 13,8 C 13,3 C 9,4 C 71 % 1025,4 hPa 0,0 l/m 0 min 0 min 58 W/m 16,1 km/h (3 Bft) 91,49 %
18.04.2023 19:18 13,7 C 13,3 C 9,4 C 72 % 1025,4 hPa 0,0 l/m 0 min 0 min 55 W/m 12,9 km/h (3 Bft) 93,62 %
18.04.2023 19:20 13,7 C 13,3 C 9,4 C 72 % 1025,4 hPa 0,0 l/m 0 min 0 min 54 W/m 9,7 km/h (2 Bft) 93,48 %
18.04.2023 19:22 13,6 C 13,3 C 9,4 C 72 % 1025,4 hPa 0,0 l/m 0 min 0 min 53 W/m 16,1 km/h (3 Bft) 91,49 %
18.04.2023 19:24 13,6 C 12,8 C 9,4 C 72 % 1025,4 hPa 0,0 l/m 0 min 0 min 51 W/m 16,1 km/h (3 Bft) 95,74 %
18.04.2023 19:26 13,5 C 12,8 C 8,9 C 72 % 1025,4 hPa 0,0 l/m 0 min 0 min 49 W/m 12,9 km/h (3 Bft) 95,74 %
18.04.2023 19:28 13,4 C 12,8 C 8,9 C 72 % 1025,4 hPa 0,0 l/m 0 min 0 min 47 W/m 12,9 km/h (3 Bft) 95,74 %
18.04.2023 19:30 13,4 C 12,8 C 8,9 C 72 % 1025,4 hPa 0,0 l/m 0 min 0 min 44 W/m 16,1 km/h (3 Bft) 95,74 %
18.04.2023 19:32 13,3 C 12,8 C 8,9 C 72 % 1025,4 hPa 0,0 l/m 0 min 0 min 42 W/m 16,1 km/h (3 Bft) 95,74 %
18.04.2023 19:34 13,3 C 12,8 C 8,9 C 72 % 1025,4 hPa 0,0 l/m 0 min 0 min 41 W/m 12,9 km/h (3 Bft) 97,83 %
18.04.2023 19:36 13,3 C 12,8 C 8,9 C 72 % 1025,4 hPa 0,0 l/m 0 min 0 min 40 W/m 12,9 km/h (3 Bft) 97,87 %
18.04.2023 19:38 13,2 C 12,8 C 8,9 C 72 % 1025,3 hPa 0,0 l/m 0 min 0 min 39 W/m 12,9 km/h (3 Bft) 97,87 %
18.04.2023 19:40 13,2 C 12,2 C 8,9 C 73 % 1025,4 hPa 0,0 l/m 0 min 0 min 38 W/m 12,9 km/h (3 Bft) 95,74 %
18.04.2023 19:42 13,1 C 12,2 C 8,9 C 73 % 1025,4 hPa 0,0 l/m 0 min 0 min 36 W/m 12,9 km/h (3 Bft) 93,62 %
18.04.2023 19:44 13,1 C 12,2 C 8,9 C 73 % 1025,4 hPa 0,0 l/m 0 min 0 min 35 W/m 19,3 km/h (3 Bft) 95,74 %
18.04.2023 19:46 13,1 C 12,2 C 8,9 C 73 % 1025,4 hPa 0,0 l/m 0 min 0 min 34 W/m 16,1 km/h (3 Bft) 100,00 %
18.04.2023 19:48 13,0 C 12,2 C 8,9 C 73 % 1025,4 hPa 0,0 l/m 0 min 0 min 33 W/m 6,4 km/h (2 Bft) 95,65 %
18.04.2023 19:50 13,0 C 12,2 C 8,9 C 73 % 1025,4 hPa 0,0 l/m 0 min 0 min 32 W/m 22,5 km/h (4 Bft) 100,00 %
18.04.2023 19:52 12,9 C 12,2 C 8,3 C 73 % 1025,4 hPa 0,0 l/m 0 min 0 min 31 W/m 12,9 km/h (3 Bft) 100,00 %
18.04.2023 19:54 12,9 C 12,2 C 8,3 C 74 % 1025,4 hPa 0,0 l/m 0 min 0 min 30 W/m 9,7 km/h (2 Bft) 97,87 %
18.04.2023 19:56 12,8 C 12,2 C 8,3 C 74 % 1025,4 hPa 0,0 l/m 0 min 0 min 28 W/m 12,9 km/h (3 Bft) 100,00 %
18.04.2023 19:58 12,8 C 12,2 C 8,3 C 74 % 1025,5 hPa 0,0 l/m 0 min 0 min 27 W/m 12,9 km/h (3 Bft) 100,00 %
18.04.2023 20:00 12,8 C 11,7 C 8,3 C 74 % 1025,5 hPa 0,0 l/m 0 min 0 min 26 W/m 22,5 km/h (4 Bft) 97,87 %
18.04.2023 20:02 12,7 C 11,7 C 8,3 C 74 % 1025,5 hPa 0,0 l/m 0 min 0 min 24 W/m 19,3 km/h (3 Bft) 97,83 %
18.04.2023 20:04 12,7 C 11,7 C 8,3 C 74 % 1025,5 hPa 0,0 l/m 0 min 0 min 22 W/m 9,7 km/h (2 Bft) 100,00 %
18.04.2023 20:06 12,6 C 11,7 C 8,3 C 74 % 1025,6 hPa 0,0 l/m 0 min 0 min 21 W/m 19,3 km/h (3 Bft) 100,00 %
18.04.2023 20:08 12,6 C 11,7 C 8,3 C 75 % 1025,5 hPa 0,0 l/m 0 min 0 min 19 W/m 22,5 km/h (4 Bft) 95,74 %
18.04.2023 20:10 12,6 C 11,7 C 8,3 C 75 % 1025,5 hPa 0,0 l/m 0 min 0 min 18 W/m 16,1 km/h (3 Bft) 100,00 %
18.04.2023 20:12 12,5 C 11,7 C 8,3 C 75 % 1025,6 hPa 0,0 l/m 0 min 0 min 17 W/m 16,1 km/h (3 Bft) 100,00 %
18.04.2023 20:14 12,5 C 11,7 C 8,3 C 75 % 1025,6 hPa 0,0 l/m 0 min 0 min 16 W/m 12,9 km/h (3 Bft) 100,00 %
18.04.2023 20:16 12,4 C 11,7 C 7,8 C 75 % 1025,6 hPa 0,0 l/m 0 min 0 min 14 W/m 16,1 km/h (3 Bft) 100,00 %
18.04.2023 20:18 12,4 C 11,7 C 7,8 C 75 % 1025,6 hPa 0,0 l/m 0 min 0 min 12 W/m 16,1 km/h (3 Bft) 100,00 %
18.04.2023 20:20 12,4 C 11,7 C 7,8 C 75 % 1025,6 hPa 0,0 l/m 0 min 0 min 11 W/m 19,3 km/h (3 Bft) 100,00 %
18.04.2023 20:22 12,3 C 11,1 C 7,8 C 75 % 1025,6 hPa 0,0 l/m 0 min 0 min 11 W/m 9,7 km/h (2 Bft) 100,00 %
18.04.2023 20:24 12,3 C 11,1 C 7,8 C 76 % 1025,7 hPa 0,0 l/m 0 min 0 min 10 W/m 9,7 km/h (2 Bft) 100,00 %
18.04.2023 20:26 12,2 C 11,1 C 7,8 C 76 % 1025,6 hPa 0,0 l/m 0 min 0 min 9 W/m 9,7 km/h (2 Bft) 97,87 %
18.04.2023 20:28 12,2 C 11,1 C 7,8 C 76 % 1025,6 hPa 0,0 l/m 0 min 0 min 7 W/m 12,9 km/h (3 Bft) 100,00 %
18.04.2023 20:30 12,1 C 11,1 C 7,8 C 76 % 1025,6 hPa 0,0 l/m 0 min 0 min 7 W/m 16,1 km/h (3 Bft) 100,00 %
18.04.2023 20:32 12,1 C 11,1 C 7,8 C 76 % 1025,7 hPa 0,0 l/m 0 min 0 min 5 W/m 12,9 km/h (3 Bft) 100,00 %
18.04.2023 20:34 12,1 C 11,1 C 7,8 C 76 % 1025,7 hPa 0,0 l/m 0 min 0 min 5 W/m 12,9 km/h (3 Bft) 100,00 %
18.04.2023 20:36 12,0 C 11,1 C 7,2 C 76 % 1025,7 hPa 0,0 l/m 0 min 0 min 2 W/m 12,9 km/h (3 Bft) 97,87 %
18.04.2023 20:38 11,9 C 11,1 C 7,2 C 77 % 1025,7 hPa 0,0 l/m 0 min 0 min 0 W/m 9,7 km/h (2 Bft) 100,00 %
18.04.2023 20:40 11,9 C 10,6 C 7,2 C 77 % 1025,7 hPa 0,0 l/m 0 min 0 min 0 W/m 9,7 km/h (2 Bft) 95,74 %
18.04.2023 20:42 11,9 C 10,6 C 7,2 C 77 % 1025,7 hPa 0,0 l/m 0 min 0 min 0 W/m 9,7 km/h (2 Bft) 95,65 %
18.04.2023 20:44 11,8 C 10,6 C 7,2 C 77 % 1025,8 hPa 0,0 l/m 0 min 0 min 0 W/m 12,9 km/h (3 Bft) 97,87 %
18.04.2023 20:46 11,8 C 10,6 C 7,2 C 77 % 1025,8 hPa 0,0 l/m 0 min 0 min 0 W/m 12,9 km/h (3 Bft) 97,87 %
18.04.2023 20:48 11,8 C 10,6 C 7,2 C 77 % 1025,8 hPa 0,0 l/m 0 min 0 min 0 W/m 12,9 km/h (3 Bft) 97,87 %
18.04.2023 20:50 11,7 C 10,6 C 7,2 C 77 % 1025,8 hPa 0,0 l/m 0 min 0 min 0 W/m 9,7 km/h (2 Bft) 97,87 %
18.04.2023 20:52 11,7 C 10,6 C 7,2 C 77 % 1025,8 hPa 0,0 l/m 0 min 0 min 0 W/m 16,1 km/h (3 Bft) 97,87 %
18.04.2023 20:54 11,7 C 10,6 C 7,2 C 78 % 1025,8 hPa 0,0 l/m 0 min 0 min 0 W/m 9,7 km/h (2 Bft) 97,87 %
18.04.2023 20:56 11,6 C 10,6 C 7,2 C 78 % 1025,9 hPa 0,0 l/m 0 min 0 min 0 W/m 9,7 km/h (2 Bft) 95,65 %
18.04.2023 20:58 11,6 C 10,6 C 7,2 C 78 % 1025,9 hPa 0,0 l/m 0 min 0 min 0 W/m 16,1 km/h (3 Bft) 95,74 %
18.04.2023 21:00 11,6 C 10,6 C 7,2 C 78 % 1025,9 hPa 0,0 l/m 0 min 0 min 0 W/m 16,1 km/h (3 Bft) 97,87 %
18.04.2023 21:02 11,5 C 10,6 C 7,2 C 78 % 1025,9 hPa 0,0 l/m 0 min 0 min 0 W/m 9,7 km/h (2 Bft) 95,74 %
18.04.2023 21:04 11,5 C 10,6 C 7,2 C 78 % 1026,0 hPa 0,0 l/m 0 min 0 min 0 W/m 19,3 km/h (3 Bft) 95,92 %
18.04.2023 21:06 11,4 C 10,6 C 7,2 C 78 % 1026,0 hPa 0,0 l/m 0 min 0 min 0 W/m 12,9 km/h (3 Bft) 95,74 %
18.04.2023 21:08 11,4 C 10,6 C 7,2 C 78 % 1026,0 hPa 0,0 l/m 0 min 0 min 0 W/m 9,7 km/h (2 Bft) 95,65 %
18.04.2023 21:10 11,4 C 10,6 C 7,2 C 79 % 1026,0 hPa 0,0 l/m 0 min 0 min 0 W/m 9,7 km/h (2 Bft) 95,74 %
18.04.2023 21:12 11,3 C 10,6 C 7,2 C 79 % 1026,1 hPa 0,0 l/m 0 min 0 min 0 W/m 9,7 km/h (2 Bft) 93,62 %
18.04.2023 21:14 11,3 C 10,6 C 6,7 C 79 % 1026,1 hPa 0,0 l/m 0 min 0 min 0 W/m 9,7 km/h (2 Bft) 95,74 %
18.04.2023 21:16 11,3 C 10,6 C 6,7 C 79 % 1026,1 hPa 0,0 l/m 0 min 0 min 0 W/m 6,4 km/h (2 Bft) 95,74 %
18.04.2023 21:18 11,2 C 10,6 C 6,7 C 79 % 1026,1 hPa 0,0 l/m 0 min 0 min 0 W/m 12,9 km/h (3 Bft) 95,74 %
18.04.2023 21:20 11,2 C 10,6 C 6,7 C 79 % 1026,1 hPa 0,0 l/m 0 min 0 min 0 W/m 9,7 km/h (2 Bft) 100,00 %
18.04.2023 21:22 11,2 C 10,6 C 6,7 C 79 % 1026,1 hPa 0,0 l/m 0 min 0 min 0 W/m 12,9 km/h (3 Bft) 95,65 %
18.04.2023 21:24 11,2 C 10,6 C 6,7 C 79 % 1026,1 hPa 0,0 l/m 0 min 0 min 0 W/m 12,9 km/h (3 Bft) 95,74 %
18.04.2023 21:26 11,2 C 10,6 C 6,7 C 79 % 1026,1 hPa 0,0 l/m 0 min 0 min 0 W/m 12,9 km/h (3 Bft) 97,87 %
18.04.2023 21:28 11,2 C 10,6 C 6,7 C 79 % 1026,2 hPa 0,0 l/m 0 min 0 min 0 W/m 16,1 km/h (3 Bft) 95,74 %
18.04.2023 21:30 11,1 C 10,6 C 6,7 C 79 % 1026,2 hPa 0,0 l/m 0 min 0 min 0 W/m 12,9 km/h (3 Bft) 95,74 %
18.04.2023 21:32 11,1 C 10,6 C 6,7 C 80 % 1026,2 hPa 0,0 l/m 0 min 0 min 0 W/m 12,9 km/h (3 Bft) 95,74 %
18.04.2023 21:34 11,1 C 10,6 C 6,7 C 80 % 1026,2 hPa 0,0 l/m 0 min 0 min 0 W/m 9,7 km/h (2 Bft) 95,74 %
18.04.2023 21:36 11,0 C 10,6 C 6,7 C 80 % 1026,2 hPa 0,0 l/m 0 min 0 min 0 W/m 12,9 km/h (3 Bft) 100,00 %
18.04.2023 21:38 11,0 C 10,6 C 6,7 C 80 % 1026,2 hPa 0,0 l/m 0 min 0 min 0 W/m 12,9 km/h (3 Bft) 100,00 %
18.04.2023 21:40 10,9 C 10,6 C 6,7 C 80 % 1026,2 hPa 0,0 l/m 0 min 0 min 0 W/m 12,9 km/h (3 Bft) 97,87 %
18.04.2023 21:42 10,9 C 10,0 C 6,7 C 80 % 1026,2 hPa 0,0 l/m 0 min 0 min 0 W/m 12,9 km/h (3 Bft) 100,00 %
18.04.2023 21:44 10,9 C 10,0 C 6,7 C 80 % 1026,2 hPa 0,0 l/m 0 min 0 min 0 W/m 12,9 km/h (3 Bft) 100,00 %
18.04.2023 21:46 10,9 C 10,0 C 6,7 C 80 % 1026,2 hPa 0,0 l/m 0 min 0 min 0 W/m 12,9 km/h (3 Bft) 97,87 %
18.04.2023 21:48 10,8 C 10,0 C 6,7 C 80 % 1026,2 hPa 0,0 l/m 0 min 0 min 0 W/m 9,7 km/h (2 Bft) 97,87 %
18.04.2023 21:50 10,8 C 10,0 C 6,7 C 80 % 1026,3 hPa 0,0 l/m 0 min 0 min 0 W/m 12,9 km/h (3 Bft) 97,87 %
18.04.2023 21:52 10,8 C 10,0 C 6,7 C 80 % 1026,3 hPa 0,0 l/m 0 min 0 min 0 W/m 16,1 km/h (3 Bft) 93,88 %
18.04.2023 21:54 10,8 C 10,0 C 6,7 C 80 % 1026,3 hPa 0,0 l/m 0 min 0 min 0 W/m 9,7 km/h (2 Bft) 95,74 %
18.04.2023 21:56 10,7 C 10,0 C 6,1 C 80 % 1026,3 hPa 0,0 l/m 0 min 0 min 0 W/m 16,1 km/h (3 Bft) 95,65 %
18.04.2023 21:58 10,7 C 10,0 C 6,1 C 80 % 1026,3 hPa 0,0 l/m 0 min 0 min 0 W/m 12,9 km/h (3 Bft) 95,74 %
18.04.2023 22:00 10,7 C 10,0 C 6,1 C 80 % 1026,3 hPa 0,0 l/m 0 min 0 min 0 W/m 9,7 km/h (2 Bft) 97,87 %
18.04.2023 22:02 10,6 C 10,0 C 6,1 C 80 % 1026,2 hPa 0,0 l/m 0 min 0 min 0 W/m 6,4 km/h (2 Bft) 89,58 %
18.04.2023 22:04 10,6 C 10,0 C 6,1 C 80 % 1026,2 hPa 0,0 l/m 0 min 0 min 0 W/m 16,1 km/h (3 Bft) 46,88 %
18.04.2023 22:06 10,6 C 10,0 C 6,1 C 80 % 1026,3 hPa 0,0 l/m 0 min 0 min 0 W/m 16,1 km/h (3 Bft) 97,87 %
18.04.2023 22:08 10,6 C 10,0 C 6,1 C 81 % 1026,3 hPa 0,0 l/m 0 min 0 min 0 W/m 19,3 km/h (3 Bft) 97,87 %
18.04.2023 22:10 10,6 C 10,0 C 6,1 C 81 % 1026,3 hPa 0,0 l/m 0 min 0 min 0 W/m 16,1 km/h (3 Bft) 91,30 %
18.04.2023 22:12 10,6 C 10,0 C 6,1 C 80 % 1026,3 hPa 0,0 l/m 0 min 0 min 0 W/m 19,3 km/h (3 Bft) 93,62 %
18.04.2023 22:14 10,5 C 10,0 C 6,1 C 80 % 1026,3 hPa 0,0 l/m 0 min 0 min 0 W/m 16,1 km/h (3 Bft) 97,87 %
18.04.2023 22:16 10,5 C 10,0 C 6,1 C 81 % 1026,4 hPa 0,0 l/m 0 min 0 min 0 W/m 25,7 km/h (4 Bft) 95,74 %
18.04.2023 22:18 10,5 C 10,0 C 6,1 C 81 % 1026,4 hPa 0,0 l/m 0 min 0 min 0 W/m 12,9 km/h (3 Bft) 97,87 %
18.04.2023 22:20 10,5 C 10,0 C 6,1 C 81 % 1026,4 hPa 0,0 l/m 0 min 0 min 0 W/m 12,9 km/h (3 Bft) 97,87 %
18.04.2023 22:22 10,5 C 10,0 C 6,7 C 81 % 1026,4 hPa 0,0 l/m 0 min 0 min 0 W/m 12,9 km/h (3 Bft) 95,65 %
18.04.2023 22:24 10,5 C 10,0 C 6,7 C 81 % 1026,3 hPa 0,0 l/m 0 min 0 min 0 W/m 12,9 km/h (3 Bft) 95,74 %
18.04.2023 22:26 10,6 C 10,0 C 6,7 C 81 % 1026,3 hPa 0,0 l/m 0 min 0 min 0 W/m 12,9 km/h (3 Bft) 98,00 %
18.04.2023 22:28 10,6 C 10,0 C 6,7 C 81 % 1026,4 hPa 0,0 l/m 0 min 0 min 0 W/m 19,3 km/h (3 Bft) 93,62 %
18.04.2023 22:30 10,6 C 10,0 C 6,7 C 81 % 1026,4 hPa 0,0 l/m 0 min 0 min 0 W/m 9,7 km/h (2 Bft) 100,00 %
18.04.2023 22:32 10,6 C 10,0 C 6,7 C 81 % 1026,4 hPa 0,0 l/m 0 min 0 min 0 W/m 9,7 km/h (2 Bft) 96,00 %
18.04.2023 22:34 10,6 C 10,0 C 6,7 C 81 % 1026,4 hPa 0,0 l/m 0 min 0 min 0 W/m 19,3 km/h (3 Bft) 95,74 %
18.04.2023 22:36 10,6 C 10,0 C 6,7 C 80 % 1026,3 hPa 0,0 l/m 0 min 0 min 0 W/m 12,9 km/h (3 Bft) 97,83 %
18.04.2023 22:38 10,6 C 10,0 C 6,7 C 80 % 1026,3 hPa 0,0 l/m 0 min 0 min 0 W/m 16,1 km/h (3 Bft) 97,87 %
18.04.2023 22:40 10,6 C 10,0 C 6,7 C 80 % 1026,3 hPa 0,0 l/m 0 min 0 min 0 W/m 12,9 km/h (3 Bft) 94,00 %
18.04.2023 22:42 10,6 C 10,0 C 6,7 C 80 % 1026,4 hPa 0,0 l/m 0 min 0 min 0 W/m 19,3 km/h (3 Bft) 97,92 %
18.04.2023 22:44 10,6 C 10,0 C 6,1 C 80 % 1026,5 hPa 0,0 l/m 0 min 0 min 0 W/m 6,4 km/h (2 Bft) 97,87 %
18.04.2023 22:46 10,6 C 10,0 C 6,1 C 80 % 1026,4 hPa 0,0 l/m 0 min 0 min 0 W/m 22,5 km/h (4 Bft) 100,00 %
18.04.2023 22:48 10,6 C 10,0 C 6,1 C 80 % 1026,4 hPa 0,0 l/m 0 min 0 min 0 W/m 16,1 km/h (3 Bft) 100,00 %
18.04.2023 22:50 10,5 C 10,0 C 6,1 C 80 % 1026,4 hPa 0,0 l/m 0 min 0 min 0 W/m 9,7 km/h (2 Bft) 95,74 %
18.04.2023 22:52 10,5 C 10,0 C 6,1 C 80 % 1026,4 hPa 0,0 l/m 0 min 0 min 0 W/m 22,5 km/h (4 Bft) 97,14 %
18.04.2023 22:54 10,4 C 10,0 C 6,1 C 81 % 1026,5 hPa 0,0 l/m 0 min 0 min 0 W/m 16,1 km/h (3 Bft) 95,74 %
18.04.2023 22:56 10,4 C 9,4 C 6,1 C 81 % 1026,4 hPa 0,0 l/m 0 min 0 min 0 W/m 12,9 km/h (3 Bft) 93,62 %
18.04.2023 22:58 10,4 C 9,4 C 6,1 C 81 % 1026,5 hPa 0,0 l/m 0 min 0 min 0 W/m 12,9 km/h (3 Bft) 95,74 %
18.04.2023 23:00 10,3 C 9,4 C 6,1 C 81 % 1026,5 hPa 0,0 l/m 0 min 0 min 0 W/m 12,9 km/h (3 Bft) 94,34 %
18.04.2023 23:02 10,3 C 9,4 C 6,1 C 81 % 1026,5 hPa 0,0 l/m 0 min 0 min 0 W/m 12,9 km/h (3 Bft) 93,62 %
18.04.2023 23:04 10,3 C 9,4 C 6,1 C 81 % 1026,5 hPa 0,0 l/m 0 min 0 min 0 W/m 12,9 km/h (3 Bft) 97,56 %
18.04.2023 23:06 10,3 C 9,4 C 6,1 C 81 % 1026,5 hPa 0,0 l/m 0 min 0 min 0 W/m 12,9 km/h (3 Bft) 94,23 %
18.04.2023 23:08 10,2 C 9,4 C 6,1 C 81 % 1026,6 hPa 0,0 l/m 0 min 0 min 0 W/m 16,1 km/h (3 Bft) 95,24 %
18.04.2023 23:10 10,2 C 9,4 C 6,1 C 81 % 1026,6 hPa 0,0 l/m 0 min 0 min 0 W/m 19,3 km/h (3 Bft) 95,74 %
18.04.2023 23:12 10,2 C 9,4 C 6,1 C 81 % 1026,5 hPa 0,0 l/m 0 min 0 min 0 W/m 16,1 km/h (3 Bft) 95,74 %
18.04.2023 23:14 10,2 C 9,4 C 6,1 C 81 % 1026,6 hPa 0,0 l/m 0 min 0 min 0 W/m 16,1 km/h (3 Bft) 95,65 %
18.04.2023 23:16 10,2 C 9,4 C 6,1 C 81 % 1026,5 hPa 0,0 l/m 0 min 0 min 0 W/m 12,9 km/h (3 Bft) 93,62 %
18.04.2023 23:18 10,2 C 10,0 C 6,1 C 81 % 1026,6 hPa 0,0 l/m 0 min 0 min 0 W/m 19,3 km/h (3 Bft) 95,74 %
18.04.2023 23:20 10,3 C 10,0 C 6,1 C 81 % 1026,6 hPa 0,0 l/m 0 min 0 min 0 W/m 16,1 km/h (3 Bft) 98,18 %
18.04.2023 23:22 10,3 C 10,0 C 6,1 C 81 % 1026,6 hPa 0,0 l/m 0 min 0 min 0 W/m 16,1 km/h (3 Bft) 97,87 %
18.04.2023 23:24 10,3 C 10,0 C 6,1 C 81 % 1026,7 hPa 0,0 l/m 0 min 0 min 0 W/m 12,9 km/h (3 Bft) 97,92 %
18.04.2023 23:26 10,3 C 10,0 C 6,1 C 81 % 1026,6 hPa 0,0 l/m 0 min 0 min 0 W/m 16,1 km/h (3 Bft) 94,74 %
18.04.2023 23:28 10,3 C 10,0 C 6,1 C 81 % 1026,7 hPa 0,0 l/m 0 min 0 min 0 W/m 16,1 km/h (3 Bft) 97,87 %
18.04.2023 23:30 10,3 C 10,0 C 6,1 C 81 % 1026,7 hPa 0,0 l/m 0 min 0 min 0 W/m 9,7 km/h (2 Bft) 98,15 %
18.04.2023 23:32 10,3 C 10,0 C 6,1 C 81 % 1026,7 hPa 0,0 l/m 0 min 0 min 0 W/m 16,1 km/h (3 Bft) 95,74 %
18.04.2023 23:34 10,4 C 10,0 C 6,1 C 81 % 1026,7 hPa 0,0 l/m 0 min 0 min 0 W/m 12,9 km/h (3 Bft) 100,00 %
18.04.2023 23:36 10,4 C 10,0 C 6,1 C 81 % 1026,7 hPa 0,0 l/m 0 min 0 min 0 W/m 22,5 km/h (4 Bft) 97,87 %
18.04.2023 23:38 10,4 C 10,0 C 6,1 C 81 % 1026,6 hPa 0,0 l/m 0 min 0 min 0 W/m 9,7 km/h (2 Bft) 97,92 %
18.04.2023 23:40 10,4 C 10,0 C 6,1 C 81 % 1026,7 hPa 0,0 l/m 0 min 0 min 0 W/m 16,1 km/h (3 Bft) 100,00 %
18.04.2023 23:42 10,4 C 10,0 C 6,7 C 81 % 1026,7 hPa 0,0 l/m 0 min 0 min 0 W/m 12,9 km/h (3 Bft) 100,00 %
18.04.2023 23:44 10,5 C 10,0 C 6,7 C 81 % 1026,7 hPa 0,0 l/m 0 min 0 min 0 W/m 12,9 km/h (3 Bft) 97,83 %
18.04.2023 23:46 10,5 C 10,0 C 6,7 C 81 % 1026,6 hPa 0,0 l/m 0 min 0 min 0 W/m 16,1 km/h (3 Bft) 100,00 %
18.04.2023 23:48 10,5 C 10,0 C 6,7 C 81 % 1026,6 hPa 0,0 l/m 0 min 0 min 0 W/m 12,9 km/h (3 Bft) 100,00 %
18.04.2023 23:50 10,6 C 10,0 C 6,7 C 81 % 1026,6 hPa 0,0 l/m 0 min 0 min 0 W/m 19,3 km/h (3 Bft) 100,00 %
18.04.2023 23:52 10,6 C 10,0 C 6,7 C 80 % 1026,7 hPa 0,0 l/m 0 min 0 min 0 W/m 16,1 km/h (3 Bft) 97,87 %
18.04.2023 23:54 10,6 C 10,0 C 6,7 C 80 % 1026,7 hPa 0,0 l/m 0 min 0 min 0 W/m 16,1 km/h (3 Bft) 97,87 %
18.04.2023 23:56 10,6 C 10,0 C 6,7 C 81 % 1026,6 hPa 0,0 l/m 0 min 0 min 0 W/m 22,5 km/h (4 Bft) 100,00 %
18.04.2023 23:58 10,6 C 10,0 C 6,7 C 80 % 1026,7 hPa 0,0 l/m 0 min 0 min 0 W/m 12,9 km/h (3 Bft) 100,00 %
_ Min-Zeit 07:06 05:46 05:46 16:52 04:12 - - - - 00:08 22:04
Minimum _ 5,6 C 5,0 C 1,7 C 66 % 1024,8 hPa - - - - 0,0 km/h (0 Bft) 46,88 %
_ Max-Zeit 17:30 15:22 17:42 07:38 10:22 00:00 12:12 00:00 13:44 12:56 00:00
Maximum _ 15,6 C 23,9 C 12,8 C 90 % 1026,7 hPa 0,0 l/m 4 min 0 min 1030 W/m 38,6 km/h
O (5 Bft)
100,00 %
Durchschnitt _ 10,5 C 11,4 C 6,5 C 77 % 1025,8 hPa #0,0 l/m #5:30 h #0 min. 281 W/m 15,0 km/h (3 Bft) 97,14 %
© 2023 W. Hausmann